M I D A S
Marine Information and Data Acquisition System
Tripno 1547 of the Zeeleeuw from 2008-03-07 07:16:49 to 2008-03-07 12:44:20
Back to CruiseResearch ActivitiesStationsMapUnderway DataData graphs

EquipmentUnitsComment
TimeDGPSUTC
LatitudeDGPSDM.mWGS84
LongitudeDGPSDM.mWGS84
TemperatureSBE03/SBE38deg celciusITS90
ConductivitySBE21S/mITS90
SalinitySBE21 Practical Salinity Units
ChlorophylAChelsea fluorimeterg/lCalibrated in Aceton
Missing or incorrect values are displayed as -999
Sea surface data collected by the RV Zeeleeuw from 2008-03-07 07:19:05 to 2008-03-07 12:52:52
                                                                                    Next 1000 lines
Time Latitude Longitude Temperature Conductivity Salinity ChlorophylA
2008-03-07 07:19:15 51°13.664 2°55.952 15.0533 1.064203 6.690448 -1.766697
2008-03-07 07:19:20 51°13.665 2°55.95 15.0539 1.064203 6.690569 -1.801521
2008-03-07 07:19:25 51°13.666 2°55.947 15.0543 1.064203 6.69081 -1.766697
2008-03-07 07:19:30 51°13.667 2°55.943 15.0543 1.064203 6.690931 -1.766697
2008-03-07 07:19:35 51°13.668 2°55.938 15.0547 1.064203 6.690931 -1.766697
2008-03-07 07:19:40 51°13.669 2°55.933 15.0547 1.064203 6.691051 -1.766697
2008-03-07 07:19:45 51°13.67 2°55.927 15.0548 1.064203 6.691051 -1.801521
2008-03-07 07:19:50 51°13.672 2°55.921 15.0552 1.064203 6.691051 -1.766697
2008-03-07 07:19:55 51°13.674 2°55.914 15.0554 1.064203 6.691051 -1.766697
2008-03-07 07:20:00 51°13.676 2°55.907 15.056 1.064203 6.691051 -1.766697
2008-03-07 07:20:05 51°13.678 2°55.899 15.0559 1.064203 6.691051 -1.766697
2008-03-07 07:20:10 51°13.68 2°55.891 15.0562 1.064203 6.691172 -1.766697
2008-03-07 07:20:15 51°13.682 2°55.882 15.0567 1.064203 6.691413 -1.766697
2008-03-07 07:20:20 51°13.683 2°55.874 15.0569 1.064203 6.691413 -1.766697
2008-03-07 07:20:25 51°13.684 2°55.866 15.0572 1.064203 6.691533 -1.766697
2008-03-07 07:20:30 51°13.686 2°55.857 15.0572 1.064203 6.691654 -1.801521
2008-03-07 07:20:35 51°13.686 2°55.85 15.0582 1.064203 6.691654 -1.801521
2008-03-07 07:20:40 51°13.687 2°55.842 15.0581 1.0641 6.691076 -1.766697
2008-03-07 07:20:45 51°13.688 2°55.835 15.0584 1.0641 6.691076 -1.766697
2008-03-07 07:20:50 51°13.689 2°55.828 15.0584 1.0641 6.691076 -1.766697
2008-03-07 07:20:55 51°13.689 2°55.821 15.0592 1.0641 6.690955 -1.801521
2008-03-07 07:21:00 51°13.689 2°55.814 15.0594 1.0641 6.690955 -1.801521
2008-03-07 07:21:05 51°13.689 2°55.807 15.0598 1.0641 6.690955 -1.801521
2008-03-07 07:21:10 51°13.689 2°55.8 15.06 1.0641 6.690835 -1.766697
2008-03-07 07:21:15 51°13.689 2°55.794 15.0601 1.0641 6.690835 -1.766697
2008-03-07 07:21:20 51°13.689 2°55.788 15.0607 1.0641 6.690955 -1.766697
2008-03-07 07:21:25 51°13.689 2°55.781 15.0606 1.0641 6.690955 -1.766697
2008-03-07 07:21:30 51°13.689 2°55.775 15.0608 1.0641 6.691076 -1.766697
2008-03-07 07:21:35 51°13.688 2°55.77 15.0611 1.0641 6.691076 -1.766697
2008-03-07 07:21:40 51°13.688 2°55.764 15.0615 1.0641 6.691197 -1.766697
2008-03-07 07:21:45 51°13.688 2°55.759 15.0619 1.0641 6.691317 -1.766697
2008-03-07 07:21:50 51°13.687 2°55.754 15.062 1.063997 6.690739 -1.766697
2008-03-07 07:21:55 51°13.687 2°55.75 15.0624 1.063997 6.690739 -1.801521
2008-03-07 07:22:00 51°13.686 2°55.746 15.0625 1.063997 6.69086 -1.801521
2008-03-07 07:22:05 51°13.686 2°55.743 15.0629 1.063997 6.69086 -1.801521
2008-03-07 07:22:10 51°13.685 2°55.74 15.063 1.063997 6.69086 -1.766697
2008-03-07 07:22:15 51°13.685 2°55.738 15.063 1.063997 6.69086 -1.766697
2008-03-07 07:22:20 51°13.685 2°55.736 15.0632 1.063997 6.69086 -1.766697
2008-03-07 07:22:25 51°13.685 2°55.735 15.0638 1.063997 6.69098 -1.766697
2008-03-07 07:22:30 51°13.685 2°55.735 15.0638 1.063997 6.691101 -1.766697
2008-03-07 07:22:35 51°13.686 2°55.735 15.0642 1.063997 6.691101 -1.766697
2008-03-07 07:22:40 51°13.686 2°55.735 15.0644 1.063997 6.691101 -1.766697
2008-03-07 07:22:45 51°13.687 2°55.736 15.0648 1.063997 6.691101 -1.766697
2008-03-07 07:22:50 51°13.689 2°55.737 15.0648 1.063894 6.690523 -1.766697
2008-03-07 07:22:55 51°13.691 2°55.738 15.0649 1.063894 6.690523 -1.766697
2008-03-07 07:23:00 51°13.693 2°55.739 15.0652 1.063894 6.690643 -1.766697
2008-03-07 07:23:05 51°13.695 2°55.74 15.0656 1.063894 6.690643 -1.766697
2008-03-07 07:23:10 51°13.697 2°55.74 15.0659 1.063894 6.690764 -1.766697
2008-03-07 07:23:15 51°13.7 2°55.741 15.0662 1.063894 6.690764 -1.766697
2008-03-07 07:23:20 51°13.703 2°55.741 15.0664 1.063894 6.690885 -1.766697
2008-03-07 07:23:25 51°13.706 2°55.74 15.0664 1.063894 6.690885 -1.766697
2008-03-07 07:23:30 51°13.71 2°55.74 15.0672 1.063894 6.691005 -1.766697
2008-03-07 07:23:35 51°13.714 2°55.738 15.067 1.063894 6.691005 -1.766697
2008-03-07 07:23:40 51°13.718 2°55.736 15.0678 1.063791 6.690306 -1.766697
2008-03-07 07:23:45 51°13.722 2°55.733 15.068 1.063791 6.690306 -1.766697
2008-03-07 07:23:50 51°13.726 2°55.729 15.0681 1.063791 6.690427 -1.801521
2008-03-07 07:23:55 51°13.731 2°55.725 15.0683 1.063791 6.690306 -1.766697
2008-03-07 07:24:00 51°13.736 2°55.72 15.0685 1.063791 6.690186 -1.766697
2008-03-07 07:24:05 51°13.741 2°55.714 15.0689 1.063791 6.690186 -1.766697
2008-03-07 07:24:10 51°13.746 2°55.709 15.0692 1.063791 6.690186 -1.801521
2008-03-07 07:24:15 51°13.752 2°55.703 15.0696 1.063791 6.690186 -1.766697
2008-03-07 07:24:20 51°13.758 2°55.696 15.07 1.063791 6.690306 -1.766697
2008-03-07 07:24:25 51°13.765 2°55.689 15.0701 1.063791 6.690306 -1.801521
2008-03-07 07:24:30 51°13.772 2°55.682 15.0705 1.063791 6.690427 -1.766697
2008-03-07 07:24:35 51°13.779 2°55.675 15.0704 1.063791 6.690427 -1.766697
2008-03-07 07:24:40 51°13.787 2°55.668 15.0708 1.063688 6.689849 -1.766697
2008-03-07 07:24:45 51°13.796 2°55.66 15.071 1.063688 6.689728 -1.766697
2008-03-07 07:24:50 51°13.804 2°55.653 15.0713 1.063688 6.689849 -1.766697
2008-03-07 07:24:55 51°13.813 2°55.645 15.0713 1.063688 6.689849 -1.766697
2008-03-07 07:25:00 51°13.822 2°55.638 15.0717 1.063688 6.68997 -1.766697
2008-03-07 07:25:05 51°13.832 2°55.63 15.0724 1.063688 6.68997 -1.766697
2008-03-07 07:25:10 51°13.842 2°55.622 15.0724 1.063688 6.690211 -1.766697
2008-03-07 07:25:15 51°13.851 2°55.614 15.0724 1.063688 6.690331 -1.766697
2008-03-07 07:25:20 51°13.862 2°55.606 15.0731 1.063688 6.690331 -1.766697
2008-03-07 07:25:25 51°13.872 2°55.598 15.0734 1.063585 6.689874 -1.766697
2008-03-07 07:25:30 51°13.883 2°55.589 15.0735 1.063585 6.689874 -1.766697
2008-03-07 07:25:35 51°13.895 2°55.581 15.0739 1.063585 6.689874 -1.766697
2008-03-07 07:25:40 51°13.906 2°55.573 15.0742 1.063585 6.689874 -1.766697
2008-03-07 07:25:45 51°13.918 2°55.564 15.0743 1.063585 6.689994 -1.766697
2008-03-07 07:25:50 51°13.929 2°55.555 15.0745 1.063585 6.689874 -1.766697
2008-03-07 07:25:55 51°13.941 2°55.546 15.0749 1.063585 6.689874 -1.766697
2008-03-07 07:26:00 51°13.953 2°55.537 15.0752 1.063585 6.689874 -1.766697
2008-03-07 07:26:05 51°13.966 2°55.528 15.0755 1.063585 6.689874 -1.766697
2008-03-07 07:26:10 51°13.978 2°55.519 15.0755 1.063585 6.689994 -1.766697
2008-03-07 07:26:15 51°13.99 2°55.51 15.0761 1.063585 6.690115 -1.766697
2008-03-07 07:26:20 51°14.003 2°55.501 15.0764 1.063481 6.689296 -1.766697
2008-03-07 07:26:25 51°14.015 2°55.492 15.0763 1.063481 6.689416 -1.766697
2008-03-07 07:26:30 51°14.027 2°55.482 15.0767 1.063481 6.689296 -1.766697
2008-03-07 07:26:35 51°14.039 2°55.473 15.0772 1.063481 6.689296 -1.766697
2008-03-07 07:26:40 51°14.052 2°55.464 15.0774 1.063481 6.689416 -1.766697
2008-03-07 07:26:45 51°14.064 2°55.455 15.0775 1.063481 6.689296 -1.766697
2008-03-07 07:26:50 51°14.076 2°55.445 15.0778 1.063481 6.689416 -1.766697
2008-03-07 07:26:55 51°14.089 2°55.435 15.078 1.063481 6.689416 -1.766697
2008-03-07 07:27:00 51°14.101 2°55.426 15.0784 1.063481 6.689296 -1.766697
2008-03-07 07:27:05 51°14.114 2°55.416 15.0788 1.063481 6.689296 -1.766697
2008-03-07 07:27:10 51°14.126 2°55.406 15.0789 1.063481 6.689416 -1.766697
2008-03-07 07:27:15 51°14.138 2°55.397 15.0795 1.063481 6.689416 -1.766697
2008-03-07 07:27:20 51°14.15 2°55.387 15.0798 1.063378 6.688717 -1.766697
2008-03-07 07:27:25 51°14.162 2°55.377 15.0804 1.063378 6.688838 -1.766697
2008-03-07 07:27:30 51°14.173 2°55.366 15.0806 1.063378 6.688838 -1.766697
2008-03-07 07:27:35 51°14.185 2°55.355 15.0811 1.063378 6.688838 -1.766697
2008-03-07 07:27:40 51°14.196 2°55.344 15.0815 1.063378 6.688838 -1.801521
2008-03-07 07:27:45 51°14.207 2°55.333 15.082 1.063378 6.688958 -1.766697
2008-03-07 07:27:50 51°14.218 2°55.321 15.0821 1.063378 6.688958 -1.766697
2008-03-07 07:27:55 51°14.229 2°55.309 15.0829 1.063378 6.688958 -1.766697
2008-03-07 07:28:00 51°14.24 2°55.296 15.0831 1.063378 6.6892 -1.766697
2008-03-07 07:28:05 51°14.25 2°55.283 15.0834 1.063378 6.6892 -1.766697
2008-03-07 07:28:10 51°14.261 2°55.269 15.084 1.063378 6.6892 -1.801521
2008-03-07 07:28:15 51°14.271 2°55.254 15.0841 1.063275 6.688621 -1.766697
2008-03-07 07:28:20 51°14.28 2°55.239 15.0843 1.063275 6.688501 -1.766697
2008-03-07 07:28:25 51°14.29 2°55.223 15.0848 1.063275 6.688501 -1.766697
2008-03-07 07:28:30 51°14.299 2°55.207 15.0858 1.063275 6.688501 -1.766697
2008-03-07 07:28:35 51°14.308 2°55.191 15.0858 1.063275 6.688501 -1.766697
2008-03-07 07:28:40 51°14.317 2°55.174 15.0861 1.063275 6.688501 -1.766697
2008-03-07 07:28:45 51°14.325 2°55.157 15.0864 1.063275 6.688501 -1.766697
2008-03-07 07:28:50 51°14.335 2°55.14 15.0868 1.063275 6.688501 -1.766697
2008-03-07 07:28:55 51°14.344 2°55.123 15.0871 1.063275 6.688621 -1.766697
2008-03-07 07:29:00 51°14.352 2°55.105 15.0875 1.063275 6.688742 -1.766697
2008-03-07 07:29:05 51°14.361 2°55.086 15.0881 1.063275 6.688742 -1.766697
2008-03-07 07:29:10 51°14.37 2°55.068 15.0884 1.063275 6.688742 -1.766697
2008-03-07 07:29:15 51°14.378 2°55.049 15.0887 1.063172 6.688164 -1.766697
2008-03-07 07:29:20 51°14.387 2°55.029 15.0891 1.063172 6.688164 -1.766697
2008-03-07 07:29:25 51°14.395 2°55.009 15.0893 1.063172 6.688164 -1.801521
2008-03-07 07:29:30 51°14.404 2°54.989 15.0894 1.063172 6.688043 -1.766697
2008-03-07 07:29:35 51°14.412 2°54.969 15.0894 1.063172 6.688043 -1.766697
2008-03-07 07:29:40 51°14.422 2°54.949 15.0899 1.063172 6.688043 -1.766697
2008-03-07 07:29:45 51°14.431 2°54.928 15.0907 1.063172 6.688284 -1.766697
2008-03-07 07:29:50 51°14.442 2°54.908 15.0906 1.063172 6.688284 -1.766697
2008-03-07 07:29:55 51°14.452 2°54.888 15.0908 1.063172 6.688405 -1.766697
2008-03-07 07:30:00 51°14.463 2°54.869 15.0914 1.063172 6.688646 -1.801521
2008-03-07 07:30:05 51°14.474 2°54.849 15.0914 1.063172 6.688646 -1.801521
2008-03-07 07:30:10 51°14.486 2°54.83 15.0915 1.063172 6.688646 -1.766697
2008-03-07 07:30:15 51°14.498 2°54.812 15.0916 1.063172 6.688646 -1.766697
2008-03-07 07:30:20 51°14.511 2°54.794 15.0921 1.063069 6.687827 -1.766697
2008-03-07 07:30:25 51°14.523 2°54.777 15.0925 1.063069 6.687827 -1.766697
2008-03-07 07:30:30 51°14.536 2°54.76 15.093 1.063069 6.687947 -1.801521
2008-03-07 07:30:35 51°14.549 2°54.743 15.0928 1.063069 6.687947 -1.801521
2008-03-07 07:30:40 51°14.563 2°54.728 15.0929 1.063069 6.687947 -1.766697
2008-03-07 07:30:45 51°14.577 2°54.713 15.0934 1.063069 6.687947 -1.766697
2008-03-07 07:30:50 51°14.592 2°54.7 15.0937 1.063069 6.687947 -1.766697
2008-03-07 07:30:55 51°14.607 2°54.688 15.0941 1.063069 6.687947 -1.766697
2008-03-07 07:31:00 51°14.622 2°54.678 15.0944 1.063069 6.688068 -1.766697
2008-03-07 07:31:05 51°14.638 2°54.669 15.0948 1.063069 6.688068 -1.766697
2008-03-07 07:31:10 51°14.654 2°54.663 15.0951 1.063069 6.688068 -1.766697
2008-03-07 07:31:15 51°14.67 2°54.658 15.0957 1.063069 6.688068 -1.766697
2008-03-07 07:31:20 51°14.686 2°54.655 15.0957 1.062966 6.687489 -1.766697
2008-03-07 07:31:25 51°14.702 2°54.654 15.0961 1.063069 6.688309 -1.801521
2008-03-07 07:31:30 51°14.719 2°54.654 15.0967 1.062966 6.687731 -1.766697
2008-03-07 07:31:35 51°14.735 2°54.655 15.0967 1.062966 6.687731 -1.766697
2008-03-07 07:31:40 51°14.751 2°54.658 15.0975 1.062966 6.687972 -1.801521
2008-03-07 07:31:45 51°14.768 2°54.659 15.0976 1.062966 6.688093 -1.766697
2008-03-07 07:31:50 51°14.784 2°54.663 15.0984 1.062966 6.687972 -1.766697
2008-03-07 07:31:55 51°14.8 2°54.665 15.0985 1.062966 6.687851 -1.801521
2008-03-07 07:32:00 51°14.817 2°54.668 15.0991 1.062966 6.687731 -1.766697
2008-03-07 07:32:05 51°14.833 2°54.67 15.0994 1.062966 6.687731 -1.766697
2008-03-07 07:32:10 51°14.849 2°54.673 15.1001 1.062966 6.687489 -1.766697
2008-03-07 07:32:15 51°14.865 2°54.676 15.1006 1.062966 6.68761 -1.801521
2008-03-07 07:32:20 51°14.882 2°54.678 15.1008 1.062966 6.687489 -1.766697
2008-03-07 07:32:25 51°14.898 2°54.681 15.1014 1.062966 6.68761 -1.766697
2008-03-07 07:32:30 51°14.914 2°54.683 15.1018 1.062863 6.687152 -1.801521
2008-03-07 07:32:35 51°14.93 2°54.687 15.1022 1.062863 6.687152 -1.801521
2008-03-07 07:32:40 51°14.946 2°54.689 15.1024 1.062863 6.687393 -1.766697
2008-03-07 07:32:45 51°14.962 2°54.693 15.1035 1.062863 6.687393 -1.801521
2008-03-07 07:32:50 51°14.978 2°54.695 15.1032 1.062863 6.687514 -1.766697
2008-03-07 07:32:55 51°14.994 2°54.698 15.104 1.062863 6.687514 -1.766697
2008-03-07 07:33:00 51°15.01 2°54.7 15.1039 1.062863 6.687514 -1.766697
2008-03-07 07:33:05 51°15.025 2°54.703 15.1045 1.062863 6.687514 -1.766697
2008-03-07 07:33:10 51°15.041 2°54.705 15.1047 1.062863 6.687635 -1.766697
2008-03-07 07:33:15 51°15.057 2°54.708 15.1053 1.062863 6.687755 -1.801521
2008-03-07 07:33:20 51°15.072 2°54.71 15.1056 1.06276 6.687298 -1.766697
2008-03-07 07:33:25 51°15.088 2°54.713 15.1063 1.06276 6.687418 -1.766697
2008-03-07 07:33:30 51°15.104 2°54.716 15.1062 1.06276 6.687539 -1.766697
2008-03-07 07:33:35 51°15.119 2°54.718 15.107 1.06276 6.687539 -1.766697
2008-03-07 07:33:40 51°15.135 2°54.719 15.1072 1.06276 6.68778 -1.766697
2008-03-07 07:33:45 51°15.15 2°54.721 15.1076 1.06276 6.687901 -1.766697
2008-03-07 07:33:50 51°15.165 2°54.722 15.108 1.06276 6.687901 -1.766697
2008-03-07 07:33:55 51°15.181 2°54.723 15.1082 1.06276 6.687901 -1.766697
2008-03-07 07:34:00 51°15.197 2°54.724 15.1081 1.06276 6.687418 -1.766697
2008-03-07 07:34:05 51°15.212 2°54.727 15.1089 1.06276 6.687418 -1.766697
2008-03-07 07:34:10 51°15.228 2°54.729 15.1089 1.06276 6.687539 -1.766697
2008-03-07 07:34:15 51°15.244 2°54.732 15.1094 1.06276 6.687418 -1.766697
2008-03-07 07:34:20 51°15.26 2°54.735 15.1099 1.06276 6.687659 -1.766697
2008-03-07 07:34:25 51°15.275 2°54.738 15.1102 1.06276 6.688142 -1.766697
2008-03-07 07:34:30 51°15.291 2°54.741 15.1103 1.06276 6.688021 -1.766697
2008-03-07 07:34:35 51°15.307 2°54.744 15.1106 1.06276 6.688021 -1.766697
2008-03-07 07:34:40 51°15.323 2°54.746 15.1104 1.062657 6.687684 -1.766697
2008-03-07 07:34:45 51°15.338 2°54.75 15.1113 1.062657 6.687564 -1.766697
2008-03-07 07:34:50 51°15.354 2°54.753 15.1108 1.062657 6.687684 -1.766697
2008-03-07 07:34:55 51°15.37 2°54.757 15.1115 1.062657 6.687564 -1.766697
2008-03-07 07:35:00 51°15.386 2°54.761 15.1116 1.062657 6.687564 -1.766697
2008-03-07 07:35:05 51°15.402 2°54.765 15.112 1.062657 6.687564 -1.766697
2008-03-07 07:35:10 51°15.417 2°54.769 15.112 1.062657 6.687564 -1.766697
2008-03-07 07:35:15 51°15.433 2°54.773 15.1129 1.062657 6.687443 -1.766697
2008-03-07 07:35:20 51°15.449 2°54.777 15.1128 1.062554 6.686985 -1.766697
2008-03-07 07:35:25 51°15.465 2°54.782 15.1133 1.062657 6.687684 -1.766697
2008-03-07 07:35:30 51°15.481 2°54.785 15.1133 1.062554 6.687106 -1.766697
2008-03-07 07:35:35 51°15.497 2°54.789 15.1134 1.062554 6.687106 -1.766697
2008-03-07 07:35:40 51°15.512 2°54.793 15.1141 1.062657 6.687684 -1.766697
2008-03-07 07:35:45 51°15.528 2°54.797 15.1143 1.062554 6.686985 -1.801521
2008-03-07 07:35:50 51°15.544 2°54.802 15.1145 1.062657 6.687443 -1.766697
2008-03-07 07:35:55 51°15.56 2°54.807 15.1147 1.062554 6.686864 -1.766697
2008-03-07 07:36:00 51°15.576 2°54.813 15.1154 1.062554 6.687106 -1.801521
2008-03-07 07:36:05 51°15.591 2°54.818 15.1152 1.062554 6.687106 -1.801521
2008-03-07 07:36:10 51°15.607 2°54.824 15.1158 1.062554 6.687226 -1.766697
2008-03-07 07:36:15 51°15.622 2°54.831 15.1155 1.062554 6.687347 -1.766697
2008-03-07 07:36:20 51°15.637 2°54.838 15.1159 1.062554 6.687347 -1.766697
2008-03-07 07:36:25 51°15.652 2°54.847 15.1161 1.062554 6.687347 -1.766697
2008-03-07 07:36:30 51°15.667 2°54.855 15.1166 1.062554 6.687347 -1.766697
2008-03-07 07:36:35 51°15.682 2°54.864 15.1167 1.062554 6.687347 -1.766697
2008-03-07 07:36:40 51°15.697 2°54.873 15.1176 1.062451 6.686527 -1.766697
2008-03-07 07:36:45 51°15.712 2°54.881 15.1167 1.062554 6.687709 -1.766697
2008-03-07 07:36:50 51°15.726 2°54.891 15.1176 1.062554 6.687106 -1.766697
2008-03-07 07:36:55 51°15.741 2°54.9 15.118 1.062451 6.68713 -1.766697
2008-03-07 07:37:00 51°15.756 2°54.909 15.1178 1.062451 6.686889 -1.766697
2008-03-07 07:37:05 51°15.77 2°54.92 15.1176 1.062451 6.686889 -1.766697
2008-03-07 07:37:10 51°15.783 2°54.933 15.1183 1.062451 6.686527 -1.766697
2008-03-07 07:37:15 51°15.797 2°54.946 15.1187 1.062451 6.686889 -1.766697
2008-03-07 07:37:20 51°15.809 2°54.96 15.1183 1.062451 6.686889 -1.766697
2008-03-07 07:37:25 51°15.821 2°54.977 15.1188 1.062451 6.686648 -1.766697
2008-03-07 07:37:30 51°15.831 2°54.995 15.1198 1.062451 6.687251 -1.766697
2008-03-07 07:37:35 51°15.841 2°55.013 15.1191 1.062451 6.687251 -1.766697
2008-03-07 07:37:40 51°15.851 2°55.033 15.1193 1.062451 6.687251 -1.766697
2008-03-07 07:37:45 51°15.859 2°55.053 15.1196 1.062451 6.687251 -1.766697
2008-03-07 07:37:50 51°15.867 2°55.075 15.1206 1.062451 6.687372 -1.766697
2008-03-07 07:37:55 51°15.875 2°55.096 15.1198 1.062348 6.686673 -1.766697
2008-03-07 07:38:00 51°15.882 2°55.118 15.1206 1.062451 6.68713 -1.766697
2008-03-07 07:38:05 51°15.89 2°55.14 15.1207 1.062451 6.68713 -1.766697
2008-03-07 07:38:10 51°15.897 2°55.163 15.1213 1.062348 6.686431 -1.766697
2008-03-07 07:38:15 51°15.904 2°55.185 15.1215 1.062348 6.686673 -1.766697
2008-03-07 07:38:20 51°15.911 2°55.207 15.1219 1.062348 6.686914 -1.766697
2008-03-07 07:38:25 51°15.918 2°55.229 15.1224 1.062348 6.687276 -1.766697
2008-03-07 07:38:30 51°15.926 2°55.251 15.1225 1.062348 6.687397 -1.766697
2008-03-07 07:38:35 51°15.933 2°55.273 15.1228 1.062348 6.687397 -1.766697
2008-03-07 07:38:40 51°15.941 2°55.295 15.1235 1.062348 6.687397 -1.766697
2008-03-07 07:38:45 51°15.948 2°55.317 15.1239 1.062348 6.687397 -1.766697
2008-03-07 07:38:50 51°15.956 2°55.339 15.124 1.062348 6.687276 -1.801521
2008-03-07 07:38:55 51°15.963 2°55.361 15.1245 1.062348 6.687276 -1.766697
2008-03-07 07:39:00 51°15.97 2°55.383 15.1249 1.062348 6.687276 -1.766697
2008-03-07 07:39:05 51°15.978 2°55.405 15.1256 1.062348 6.687276 -1.766697
2008-03-07 07:39:10 51°15.986 2°55.427 15.126 1.062348 6.687397 -1.801521
2008-03-07 07:39:15 51°15.993 2°55.449 15.1264 1.062348 6.687397 -1.766697
2008-03-07 07:39:20 51°16.001 2°55.47 15.127 1.062348 6.687759 -1.766697
2008-03-07 07:39:25 51°16.01 2°55.491 15.1271 1.062245 6.686939 -1.766697
2008-03-07 07:39:30 51°16.018 2°55.513 15.1278 1.062245 6.686939 -1.766697
2008-03-07 07:39:35 51°16.026 2°55.534 15.1278 1.062245 6.686939 -1.766697
2008-03-07 07:39:40 51°16.034 2°55.555 15.1288 1.062245 6.686697 -1.766697
2008-03-07 07:39:45 51°16.043 2°55.576 15.1287 1.062245 6.687059 -1.766697
2008-03-07 07:39:50 51°16.051 2°55.598 15.1296 1.062245 6.686577 -1.766697
2008-03-07 07:39:55 51°16.058 2°55.62 15.1301 1.062245 6.687059 -1.801521
2008-03-07 07:40:00 51°16.066 2°55.642 15.1305 1.062245 6.686697 -1.766697
2008-03-07 07:40:05 51°16.072 2°55.664 15.1303 1.062245 6.686697 -1.766697
2008-03-07 07:40:10 51°16.079 2°55.687 15.1315 1.062245 6.686939 -1.766697
2008-03-07 07:40:15 51°16.086 2°55.709 15.1316 1.062245 6.687301 -1.801521
2008-03-07 07:40:20 51°16.093 2°55.732 15.1317 1.062245 6.68718 -1.766697
2008-03-07 07:40:25 51°16.1 2°55.754 15.1325 1.062245 6.687301 -1.766697
2008-03-07 07:40:30 51°16.107 2°55.777 15.1327 1.062245 6.68718 -1.766697
2008-03-07 07:40:35 51°16.113 2°55.799 15.1334 1.062245 6.68718 -1.766697
2008-03-07 07:40:40 51°16.121 2°55.821 15.1336 1.062245 6.68718 -1.766697
2008-03-07 07:40:45 51°16.127 2°55.844 15.1343 1.062142 6.68636 -1.766697
2008-03-07 07:40:50 51°16.134 2°55.866 15.1345 1.062141 6.686239 -1.766697
2008-03-07 07:40:55 51°16.141 2°55.889 15.1353 1.062141 6.686239 -1.766697
2008-03-07 07:41:00 51°16.147 2°55.911 15.1363 1.062142 6.686843 -1.766697
2008-03-07 07:41:05 51°16.155 2°55.933 15.1357 1.062142 6.686843 -1.766697
2008-03-07 07:41:10 51°16.161 2°55.956 15.137 1.062142 6.68636 -1.766697
2008-03-07 07:41:15 51°16.168 2°55.978 15.1375 1.062142 6.686843 -1.801521
2008-03-07 07:41:20 51°16.176 2°56 15.1374 1.062142 6.686481 -1.766697
2008-03-07 07:41:25 51°16.183 2°56.022 15.1384 1.062142 6.686722 -1.766697
2008-03-07 07:41:30 51°16.191 2°56.044 15.1381 1.062142 6.686481 -1.766697
2008-03-07 07:41:35 51°16.197 2°56.066 15.1393 1.062142 6.686481 -1.766697
2008-03-07 07:41:40 51°16.205 2°56.088 15.1396 1.062142 6.686601 -1.766697
2008-03-07 07:41:45 51°16.213 2°56.11 15.1403 1.062142 6.68636 -1.766697
2008-03-07 07:41:50 51°16.22 2°56.132 15.1408 1.062142 6.686481 -1.766697
2008-03-07 07:41:55 51°16.228 2°56.153 15.1414 1.062142 6.686481 -1.766697
2008-03-07 07:42:00 51°16.235 2°56.175 15.1416 1.062038 6.685661 -1.801521
2008-03-07 07:42:05 51°16.242 2°56.197 15.1431 1.062038 6.685661 -1.801521
2008-03-07 07:42:10 51°16.25 2°56.219 15.1426 1.062142 6.686722 -1.766697
2008-03-07 07:42:15 51°16.257 2°56.241 15.1436 1.062142 6.686481 -1.766697
2008-03-07 07:42:20 51°16.265 2°56.263 15.1445 1.062038 6.686023 -1.766697
2008-03-07 07:42:25 51°16.272 2°56.285 15.1448 1.062038 6.685781 -1.766697
2008-03-07 07:42:30 51°16.28 2°56.307 15.1452 1.062038 6.686023 -1.766697
2008-03-07 07:42:35 51°16.288 2°56.328 15.1459 1.062038 6.686023 -1.766697
2008-03-07 07:42:40 51°16.295 2°56.35 15.1461 1.062142 6.686601 -1.766697
2008-03-07 07:42:45 51°16.303 2°56.372 15.1466 1.062038 6.685781 -1.766697
2008-03-07 07:42:50 51°16.31 2°56.394 15.1474 1.062038 6.685902 -1.766697
2008-03-07 07:42:55 51°16.317 2°56.416 15.1474 1.062038 6.685661 -1.766697
2008-03-07 07:43:00 51°16.324 2°56.439 15.1485 1.062038 6.686143 -1.766697
2008-03-07 07:43:05 51°16.331 2°56.461 15.1484 1.062038 6.686143 -1.766697
2008-03-07 07:43:10 51°16.338 2°56.484 15.1499 1.062038 6.686023 -1.766697
2008-03-07 07:43:15 51°16.346 2°56.505 15.1497 1.061935 6.685565 -1.766697
2008-03-07 07:43:20 51°16.352 2°56.528 15.1505 1.062038 6.686143 -1.766697
2008-03-07 07:43:25 51°16.36 2°56.55 15.151 1.062038 6.685902 -1.766697
2008-03-07 07:43:30 51°16.367 2°56.573 15.152 1.062038 6.686385 -1.766697
2008-03-07 07:43:35 51°16.375 2°56.594 15.1518 1.062038 6.686385 -1.766697
2008-03-07 07:43:40 51°16.382 2°56.616 15.1533 1.061935 6.685323 -1.766697
2008-03-07 07:43:45 51°16.389 2°56.638 15.1536 1.062038 6.686264 -1.766697
2008-03-07 07:43:50 51°16.397 2°56.66 15.1533 1.061935 6.685323 -1.766697
2008-03-07 07:43:55 51°16.404 2°56.683 15.1545 1.061935 6.685685 -1.766697
2008-03-07 07:44:00 51°16.412 2°56.705 15.1552 1.061935 6.685444 -1.766697
2008-03-07 07:44:05 51°16.419 2°56.727 15.1561 1.061935 6.685444 -1.766697
2008-03-07 07:44:10 51°16.427 2°56.749 15.1559 1.061935 6.685806 -1.766697
2008-03-07 07:44:15 51°16.434 2°56.772 15.1567 1.061935 6.685685 -1.766697
2008-03-07 07:44:20 51°16.441 2°56.794 15.1576 1.061935 6.685685 -1.766697
2008-03-07 07:44:25 51°16.448 2°56.817 15.1582 1.061935 6.685685 -1.766697
2008-03-07 07:44:30 51°16.455 2°56.839 15.1583 1.061935 6.685565 -1.766697
2008-03-07 07:44:35 51°16.462 2°56.862 15.1593 1.061935 6.685565 -1.766697
2008-03-07 07:44:40 51°16.469 2°56.885 15.1592 1.061935 6.685806 -1.766697
2008-03-07 07:44:45 51°16.476 2°56.907 15.1602 1.061935 6.685685 -1.766697
2008-03-07 07:44:50 51°16.483 2°56.93 15.161 1.061935 6.685806 -1.766697
2008-03-07 07:44:55 51°16.491 2°56.952 15.1614 1.061935 6.686168 -1.766697
2008-03-07 07:45:00 51°16.499 2°56.973 15.1616 1.061832 6.685348 -1.766697
2008-03-07 07:45:05 51°16.506 2°56.996 15.1626 1.061832 6.685348 -1.766697
2008-03-07 07:45:10 51°16.514 2°57.017 15.1628 1.061832 6.685469 -1.766697
2008-03-07 07:45:15 51°16.521 2°57.039 15.1641 1.061935 6.686047 -1.766697
2008-03-07 07:45:20 51°16.53 2°57.06 15.164 1.061832 6.685589 -1.766697
2008-03-07 07:45:25 51°16.537 2°57.083 15.1649 1.061935 6.686047 -1.766697
2008-03-07 07:45:30 51°16.545 2°57.104 15.1649 1.061832 6.685469 -1.766697
2008-03-07 07:45:35 51°16.552 2°57.127 15.1663 1.061832 6.685469 -1.766697
2008-03-07 07:45:40 51°16.559 2°57.149 15.1667 1.061935 6.68653 -1.766697
2008-03-07 07:45:45 51°16.567 2°57.171 15.167 1.061832 6.68571 -1.766697
2008-03-07 07:45:50 51°16.574 2°57.193 15.1678 1.061832 6.685951 -1.766697
2008-03-07 07:45:55 51°16.582 2°57.215 15.1682 1.061832 6.685831 -1.766697
2008-03-07 07:46:00 51°16.589 2°57.237 15.1695 1.061832 6.686072 -1.801521
2008-03-07 07:46:05 51°16.598 2°57.259 15.17 1.061832 6.686072 -1.801521
2008-03-07 07:46:10 51°16.605 2°57.281 15.17 1.061832 6.685831 -1.766697
2008-03-07 07:46:15 51°16.613 2°57.303 15.1715 1.061832 6.68571 -1.766697
2008-03-07 07:46:20 51°16.622 2°57.324 15.1711 1.061729 6.68501 -1.766697
2008-03-07 07:46:25 51°16.628 2°57.347 15.1728 1.061832 6.68571 -1.766697
2008-03-07 07:46:30 51°16.637 2°57.368 15.1724 1.061832 6.68571 -1.766697
2008-03-07 07:46:35 51°16.644 2°57.39 15.1736 1.061832 6.68571 -1.766697
2008-03-07 07:46:40 51°16.651 2°57.413 15.1739 1.061832 6.685951 -1.766697
2008-03-07 07:46:45 51°16.658 2°57.435 15.1752 1.061729 6.685131 -1.766697
2008-03-07 07:46:50 51°16.665 2°57.458 15.1758 1.061729 6.685614 -1.801521
2008-03-07 07:46:55 51°16.673 2°57.48 15.1764 1.061832 6.685951 -1.766697
2008-03-07 07:47:00 51°16.68 2°57.503 15.1771 1.061729 6.685493 -1.801521
2008-03-07 07:47:05 51°16.687 2°57.525 15.1775 1.061729 6.685493 -1.801521
2008-03-07 07:47:10 51°16.694 2°57.548 15.1787 1.061729 6.685252 -1.766697
2008-03-07 07:47:15 51°16.702 2°57.57 15.1785 1.061729 6.685252 -1.766697
2008-03-07 07:47:20 51°16.709 2°57.593 15.1804 1.061729 6.685131 -1.766697
2008-03-07 07:47:25 51°16.717 2°57.614 15.1799 1.061729 6.685252 -1.766697
2008-03-07 07:47:30 51°16.724 2°57.637 15.1815 1.061729 6.685252 -1.766697
2008-03-07 07:47:35 51°16.732 2°57.659 15.182 1.061729 6.685252 -1.766697
2008-03-07 07:47:40 51°16.74 2°57.681 15.1826 1.061729 6.685252 -1.801521
2008-03-07 07:47:45 51°16.748 2°57.703 15.1839 1.061729 6.685373 -1.766697
2008-03-07 07:47:50 51°16.756 2°57.725 15.1849 1.061729 6.685493 -1.766697
2008-03-07 07:47:55 51°16.764 2°57.746 15.1843 1.061729 6.685131 -1.766697
2008-03-07 07:48:00 51°16.771 2°57.769 15.1865 1.061729 6.685493 -1.766697
2008-03-07 07:48:05 51°16.78 2°57.79 15.1858 1.061729 6.685493 -1.766697
2008-03-07 07:48:10 51°16.787 2°57.813 15.1872 1.061729 6.685131 -1.766697
2008-03-07 07:48:15 51°16.794 2°57.835 15.1878 1.061729 6.685373 -1.766697
2008-03-07 07:48:20 51°16.801 2°57.858 15.1891 1.061729 6.685131 -1.801521
2008-03-07 07:48:25 51°16.809 2°57.88 15.1897 1.061626 6.684673 -1.801521
2008-03-07 07:48:30 51°16.816 2°57.903 15.1905 1.061626 6.684552 -1.766697
2008-03-07 07:48:36 51°16.825 2°57.93 15.1916 1.061626 6.684552 -1.766697
2008-03-07 07:48:40 51°16.831 2°57.948 15.192 1.061729 6.685373 -1.801521
2008-03-07 07:48:45 51°16.838 2°57.97 15.1928 1.061626 6.684552 -1.766697
2008-03-07 07:48:50 51°16.846 2°57.992 15.1937 1.061626 6.684794 -1.766697
2008-03-07 07:48:55 51°16.854 2°58.014 15.194 1.061626 6.684552 -1.766697
2008-03-07 07:49:00 51°16.861 2°58.037 15.1952 1.061626 6.684673 -1.766697
2008-03-07 07:49:05 51°16.868 2°58.059 15.1956 1.061626 6.684673 -1.766697
2008-03-07 07:49:10 51°16.875 2°58.082 15.1967 1.061626 6.684552 -1.801521
2008-03-07 07:49:15 51°16.883 2°58.104 15.1979 1.061626 6.684673 -1.766697
2008-03-07 07:49:20 51°16.89 2°58.127 15.1985 1.061626 6.684673 -1.766697
2008-03-07 07:49:25 51°16.897 2°58.149 15.1991 1.061626 6.684914 -1.766697
2008-03-07 07:49:30 51°16.905 2°58.172 15.1999 1.061626 6.684794 -1.766697
2008-03-07 07:49:35 51°16.912 2°58.194 15.2004 1.061626 6.684794 -1.766697
2008-03-07 07:49:40 51°16.92 2°58.217 15.2009 1.061626 6.684794 -1.766697
2008-03-07 07:49:45 51°16.927 2°58.239 15.2015 1.061626 6.684673 -1.801521
2008-03-07 07:49:50 51°16.934 2°58.262 15.2021 1.061626 6.684673 -1.766697
2008-03-07 07:49:55 51°16.942 2°58.284 15.2029 1.061626 6.684794 -1.766697
2008-03-07 07:50:00 51°16.949 2°58.307 15.2036 1.061626 6.684914 -1.766697
2008-03-07 07:50:05 51°16.957 2°58.329 15.2037 1.061626 6.684914 -1.766697
2008-03-07 07:50:10 51°16.964 2°58.352 15.2051 1.061523 6.684094 -1.766697
2008-03-07 07:50:15 51°16.972 2°58.374 15.2049 1.061523 6.684335 -1.766697
2008-03-07 07:50:20 51°16.98 2°58.396 15.2057 1.061523 6.684335 -1.766697
2008-03-07 07:50:25 51°16.987 2°58.419 15.2063 1.061523 6.684456 -1.766697
2008-03-07 07:50:30 51°16.996 2°58.44 15.2067 1.061523 6.684456 -1.766697
2008-03-07 07:50:35 51°17.004 2°58.463 15.2073 1.061523 6.684456 -1.766697
2008-03-07 07:50:40 51°17.012 2°58.484 15.2077 1.061523 6.684456 -1.766697
2008-03-07 07:50:45 51°17.02 2°58.506 15.2082 1.061523 6.684335 -1.766697
2008-03-07 07:50:50 51°17.028 2°58.528 15.2087 1.061523 6.684577 -1.766697
2008-03-07 07:50:56 51°17.037 2°58.554 15.209 1.061523 6.684215 -1.766697
2008-03-07 07:51:00 51°17.043 2°58.572 15.2097 1.061523 6.684698 -1.766697
2008-03-07 07:51:05 51°17.052 2°58.594 15.2099 1.061523 6.684698 -1.766697
2008-03-07 07:51:10 51°17.059 2°58.616 15.2107 1.061523 6.684456 -1.766697
2008-03-07 07:51:15 51°17.067 2°58.638 15.2107 1.061523 6.684577 -1.766697
2008-03-07 07:51:20 51°17.074 2°58.66 15.2116 1.061523 6.684698 -1.766697
2008-03-07 07:51:25 51°17.082 2°58.683 15.2121 1.061523 6.684818 -1.766697
2008-03-07 07:51:30 51°17.089 2°58.705 15.2123 1.061523 6.684577 -1.766697
2008-03-07 07:51:35 51°17.097 2°58.727 15.2126 1.061523 6.684577 -1.766697
2008-03-07 07:51:40 51°17.103 2°58.75 15.2133 1.061523 6.684456 -1.766697
2008-03-07 07:51:45 51°17.111 2°58.772 15.2132 1.061523 6.684698 -1.801521
2008-03-07 07:51:50 51°17.117 2°58.795 15.2144 1.061523 6.684577 -1.766697
2008-03-07 07:51:55 51°17.125 2°58.817 15.2141 1.06142 6.684119 -1.766697
2008-03-07 07:52:00 51°17.132 2°58.839 15.2152 1.061523 6.684818 -1.801521
2008-03-07 07:52:05 51°17.139 2°58.862 15.2153 1.061523 6.684818 -1.801521
2008-03-07 07:52:10 51°17.147 2°58.885 15.2155 1.06142 6.684239 -1.766697
2008-03-07 07:52:15 51°17.154 2°58.907 15.2158 1.06142 6.684239 -1.766697
2008-03-07 07:52:20 51°17.162 2°58.929 15.2167 1.06142 6.684119 -1.766697
2008-03-07 07:52:25 51°17.169 2°58.951 15.2166 1.06142 6.684239 -1.766697
2008-03-07 07:52:30 51°17.177 2°58.974 15.2177 1.06142 6.68436 -1.766697
2008-03-07 07:52:35 51°17.185 2°58.997 15.2178 1.06142 6.68436 -1.766697
2008-03-07 07:52:40 51°17.192 2°59.019 15.2177 1.06142 6.68436 -1.766697
2008-03-07 07:52:45 51°17.199 2°59.042 15.2191 1.06142 6.684239 -1.766697
2008-03-07 07:52:50 51°17.208 2°59.064 15.2183 1.06142 6.684481 -1.766697
2008-03-07 07:52:55 51°17.214 2°59.087 15.2195 1.06142 6.684239 -1.766697
2008-03-07 07:53:00 51°17.222 2°59.109 15.2196 1.06142 6.684602 -1.766697
2008-03-07 07:53:05 51°17.23 2°59.131 15.22 1.06142 6.684602 -1.766697
2008-03-07 07:53:10 51°17.238 2°59.154 15.2211 1.06142 6.684481 -1.801521
2008-03-07 07:53:16 51°17.248 2°59.18 15.2204 1.061317 6.683902 -1.766697
2008-03-07 07:53:20 51°17.254 2°59.199 15.222 1.06142 6.68436 -1.766697
2008-03-07 07:53:25 51°17.262 2°59.22 15.2211 1.061317 6.683781 -1.766697
2008-03-07 07:53:30 51°17.27 2°59.242 15.2224 1.06142 6.68436 -1.766697
2008-03-07 07:53:35 51°17.277 2°59.264 15.2222 1.06142 6.68436 -1.766697
2008-03-07 07:53:40 51°17.285 2°59.286 15.2227 1.061317 6.683781 -1.766697
2008-03-07 07:53:45 51°17.291 2°59.308 15.2235 1.061317 6.683781 -1.766697
2008-03-07 07:53:50 51°17.298 2°59.33 15.2243 1.061317 6.684143 -1.766697
2008-03-07 07:53:55 51°17.306 2°59.351 15.2239 1.061317 6.684264 -1.766697
2008-03-07 07:54:00 51°17.313 2°59.372 15.2245 1.061317 6.684264 -1.766697
2008-03-07 07:54:05 51°17.32 2°59.392 15.2246 1.061317 6.684264 -1.766697
2008-03-07 07:54:10 51°17.327 2°59.412 15.2254 1.061317 6.684143 -1.766697
2008-03-07 07:54:15 51°17.334 2°59.432 15.2256 1.061317 6.684143 -1.766697
2008-03-07 07:54:20 51°17.342 2°59.452 15.2256 1.061317 6.684143 -1.766697
2008-03-07 07:54:25 51°17.348 2°59.472 15.2266 1.061317 6.684264 -1.766697
2008-03-07 07:54:30 51°17.356 2°59.491 15.2266 1.061317 6.684143 -1.801521
2008-03-07 07:54:35 51°17.362 2°59.511 15.2275 1.061317 6.684143 -1.801521
2008-03-07 07:54:40 51°17.37 2°59.53 15.2271 1.061317 6.684626 -1.801521
2008-03-07 07:54:45 51°17.375 2°59.549 15.228 1.061317 6.684506 -1.766697
2008-03-07 07:54:50 51°17.382 2°59.567 15.2285 1.061214 6.684047 -1.766697
2008-03-07 07:54:55 51°17.388 2°59.585 15.2284 1.061214 6.683927 -1.766697
2008-03-07 07:55:00 51°17.394 2°59.603 15.2288 1.061214 6.684168 -1.766697
2008-03-07 07:55:05 51°17.4 2°59.62 15.2292 1.061214 6.684168 -1.766697
2008-03-07 07:55:10 51°17.406 2°59.637 15.2298 1.061214 6.683927 -1.766697
2008-03-07 07:55:15 51°17.412 2°59.654 15.2299 1.061214 6.683927 -1.766697
2008-03-07 07:55:20 51°17.417 2°59.67 15.2304 1.061214 6.684047 -1.766697
2008-03-07 07:55:25 51°17.423 2°59.687 15.2308 1.061214 6.684047 -1.766697
2008-03-07 07:55:30 51°17.429 2°59.703 15.2311 1.061214 6.684168 -1.801521
2008-03-07 07:55:36 51°17.436 2°59.723 15.2318 1.061214 6.684168 -1.801521
2008-03-07 07:55:40 51°17.44 2°59.736 15.2319 1.061214 6.684168 -1.766697
2008-03-07 07:55:45 51°17.446 2°59.752 15.2325 1.061214 6.684289 -1.766697
2008-03-07 07:55:50 51°17.451 2°59.768 15.2332 1.061214 6.684409 -1.766697
2008-03-07 07:55:55 51°17.457 2°59.784 15.2333 1.061214 6.684409 -1.766697
2008-03-07 07:56:00 51°17.462 2°59.8 15.2336 1.061214 6.684409 -1.766697
2008-03-07 07:56:05 51°17.468 2°59.816 15.2343 1.061214 6.684409 -1.766697
2008-03-07 07:56:10 51°17.474 2°59.832 15.2345 1.061214 6.68453 -1.766697
2008-03-07 07:56:15 51°17.479 2°59.848 15.235 1.061111 6.68371 -1.766697
2008-03-07 07:56:20 51°17.485 2°59.864 15.235 1.061111 6.68383 -1.766697
2008-03-07 07:56:25 51°17.49 2°59.88 15.2361 1.061111 6.683951 -1.766697
2008-03-07 07:56:30 51°17.496 2°59.896 15.2363 1.061111 6.683951 -1.801521
2008-03-07 07:56:35 51°17.501 2°59.912 15.2366 1.061111 6.683951 -1.801521
2008-03-07 07:56:40 51°17.507 2°59.928 15.237 1.061111 6.684072 -1.766697
2008-03-07 07:56:45 51°17.512 2°59.944 15.2381 1.061111 6.683951 -1.766697
2008-03-07 07:56:50 51°17.518 2°59.96 15.2377 1.061111 6.684193 -1.766697
2008-03-07 07:56:55 51°17.523 2°59.976 15.2387 1.061111 6.684072 -1.801521
2008-03-07 07:57:00 51°17.528 2°59.992 15.239 1.061111 6.684193 -1.801521
2008-03-07 07:57:05 51°17.534 3°0.008 15.2398 1.061111 6.684193 -1.801521
2008-03-07 07:57:10 51°17.539 3°0.024 15.24 1.061111 6.684193 -1.766697
2008-03-07 07:57:15 51°17.545 3°0.04 15.2407 1.061111 6.684193 -1.766697
2008-03-07 07:57:20 51°17.55 3°0.056 15.2411 1.061111 6.684313 -1.766697
2008-03-07 07:57:25 51°17.556 3°0.072 15.2415 1.061008 6.683614 -1.766697
2008-03-07 07:57:30 51°17.561 3°0.088 15.2422 1.061008 6.683734 -1.766697
2008-03-07 07:57:35 51°17.566 3°0.103 15.2426 1.061008 6.683734 -1.766697
2008-03-07 07:57:40 51°17.572 3°0.12 15.2429 1.061008 6.683734 -1.766697
2008-03-07 07:57:45 51°17.578 3°0.136 15.2437 1.061008 6.683734 -1.801521
2008-03-07 07:57:50 51°17.583 3°0.152 15.2441 1.061008 6.683855 -1.766697
2008-03-07 07:57:55 51°17.588 3°0.168 15.2442 1.061008 6.683855 -1.766697
2008-03-07 07:58:00 51°17.594 3°0.184 15.245 1.061008 6.683855 -1.766697
2008-03-07 07:58:05 51°17.599 3°0.2 15.2452 1.061008 6.683855 -1.766697
2008-03-07 07:58:10 51°17.605 3°0.216 15.2458 1.061008 6.683976 -1.766697
2008-03-07 07:58:15 51°17.61 3°0.232 15.2461 1.061008 6.684097 -1.766697
2008-03-07 07:58:20 51°17.616 3°0.248 15.2471 1.061008 6.683976 -1.766697
2008-03-07 07:58:25 51°17.621 3°0.264 15.2472 1.061008 6.684097 -1.766697
2008-03-07 07:58:30 51°17.626 3°0.28 15.2477 1.061008 6.684097 -1.766697
2008-03-07 07:58:35 51°17.632 3°0.296 15.2482 1.061008 6.684097 -1.766697
2008-03-07 07:58:40 51°17.638 3°0.312 15.249 1.061008 6.684097 -1.766697
2008-03-07 07:58:45 51°17.643 3°0.328 15.2489 1.060905 6.683518 -1.766697
2008-03-07 07:58:50 51°17.649 3°0.345 15.2496 1.061008 6.684097 -1.766697
2008-03-07 07:58:55 51°17.654 3°0.36 15.2503 1.061008 6.684217 -1.766697
2008-03-07 07:59:00 51°17.66 3°0.377 15.2505 1.061008 6.684217 -1.766697
2008-03-07 07:59:05 51°17.665 3°0.393 15.2513 1.061008 6.684217 -1.766697
2008-03-07 07:59:10 51°17.671 3°0.409 15.2515 1.060905 6.683638 -1.766697
2008-03-07 07:59:15 51°17.677 3°0.425 15.2517 1.060905 6.683638 -1.766697
2008-03-07 07:59:20 51°17.682 3°0.441 15.2525 1.060905 6.683638 -1.766697
2008-03-07 07:59:25 51°17.688 3°0.457 15.2531 1.060905 6.683638 -1.766697
2008-03-07 07:59:30 51°17.693 3°0.473 15.2534 1.060905 6.683759 -1.766697
2008-03-07 07:59:35 51°17.699 3°0.489 15.2542 1.060905 6.683759 -1.766697
2008-03-07 07:59:40 51°17.704 3°0.505 15.2548 1.060905 6.683638 -1.766697
2008-03-07 07:59:45 51°17.71 3°0.522 15.2552 1.060905 6.683759 -1.766697
2008-03-07 07:59:50 51°17.715 3°0.537 15.2555 1.060905 6.683759 -1.766697
2008-03-07 07:59:55 51°17.721 3°0.554 15.2561 1.060905 6.68388 -1.766697
2008-03-07 08:00:00 51°17.727 3°0.569 15.2565 1.060905 6.683759 -1.766697
2008-03-07 08:00:05 51°17.732 3°0.586 15.257 1.060905 6.683759 -1.766697
2008-03-07 08:00:10 51°17.737 3°0.602 15.2578 1.060802 6.68318 -1.766697
2008-03-07 08:00:15 51°17.743 3°0.617 15.2585 1.060802 6.68318 -1.766697
2008-03-07 08:00:20 51°17.748 3°0.633 15.2586 1.060905 6.684001 -1.766697
2008-03-07 08:00:25 51°17.754 3°0.649 15.2592 1.060802 6.68318 -1.766697
2008-03-07 08:00:30 51°17.759 3°0.666 15.2599 1.060802 6.683421 -1.766697
2008-03-07 08:00:35 51°17.765 3°0.681 15.2601 1.060802 6.683421 -1.766697
2008-03-07 08:00:40 51°17.77 3°0.698 15.261 1.060802 6.683301 -1.766697
2008-03-07 08:00:45 51°17.775 3°0.713 15.2613 1.060802 6.683421 -1.766697
2008-03-07 08:00:50 51°17.781 3°0.73 15.2621 1.060802 6.683421 -1.801521
2008-03-07 08:00:55 51°17.786 3°0.745 15.2625 1.060802 6.683421 -1.766697
2008-03-07 08:01:00 51°17.792 3°0.762 15.2629 1.060802 6.683421 -1.766697
2008-03-07 08:01:05 51°17.797 3°0.777 15.2636 1.060802 6.683421 -1.766697
2008-03-07 08:01:10 51°17.803 3°0.793 15.2641 1.060802 6.683542 -1.766697
2008-03-07 08:01:15 51°17.808 3°0.81 15.265 1.060802 6.683421 -1.801521
2008-03-07 08:01:20 51°17.814 3°0.825 15.2651 1.060802 6.683542 -1.766697
2008-03-07 08:01:25 51°17.819 3°0.841 15.2661 1.060802 6.683542 -1.766697
2008-03-07 08:01:30 51°17.824 3°0.856 15.2665 1.060802 6.683542 -1.801521
2008-03-07 08:01:35 51°17.829 3°0.871 15.2673 1.060802 6.683542 -1.801521
2008-03-07 08:01:40 51°17.834 3°0.885 15.2673 1.060802 6.683663 -1.766697
2008-03-07 08:01:45 51°17.839 3°0.9 15.268 1.060698 6.682842 -1.766697
2008-03-07 08:01:50 51°17.844 3°0.915 15.2685 1.060698 6.682963 -1.766697
2008-03-07 08:01:55 51°17.849 3°0.929 15.269 1.060698 6.682842 -1.801521
2008-03-07 08:02:00 51°17.853 3°0.943 15.27 1.060698 6.683084 -1.766697
2008-03-07 08:02:05 51°17.858 3°0.957 15.2702 1.060698 6.683084 -1.766697
2008-03-07 08:02:10 51°17.862 3°0.971 15.2711 1.060698 6.682963 -1.766697
2008-03-07 08:02:15 51°17.867 3°0.984 15.2707 1.060698 6.683084 -1.766697
2008-03-07 08:02:20 51°17.871 3°0.998 15.2719 1.060698 6.682963 -1.766697
2008-03-07 08:02:25 51°17.876 3°1.011 15.2724 1.060698 6.683084 -1.766697
2008-03-07 08:02:30 51°17.88 3°1.025 15.2727 1.060698 6.682963 -1.766697
2008-03-07 08:02:35 51°17.884 3°1.038 15.2733 1.060698 6.682963 -1.766697
2008-03-07 08:02:40 51°17.889 3°1.051 15.274 1.060698 6.683084 -1.766697
2008-03-07 08:02:45 51°17.893 3°1.065 15.2744 1.060698 6.683205 -1.766697
2008-03-07 08:02:50 51°17.898 3°1.078 15.2748 1.060698 6.683084 -1.766697
2008-03-07 08:02:55 51°17.902 3°1.091 15.2753 1.060698 6.683325 -1.766697
2008-03-07 08:03:00 51°17.907 3°1.104 15.2755 1.060698 6.683205 -1.766697
2008-03-07 08:03:05 51°17.911 3°1.118 15.2768 1.060698 6.683205 -1.766697
2008-03-07 08:03:10 51°17.916 3°1.131 15.277 1.060595 6.682625 -1.766697
2008-03-07 08:03:15 51°17.92 3°1.144 15.2778 1.060595 6.682625 -1.766697
2008-03-07 08:03:20 51°17.924 3°1.157 15.2776 1.060595 6.682625 -1.766697
2008-03-07 08:03:25 51°17.929 3°1.17 15.2787 1.060595 6.682625 -1.766697
2008-03-07 08:03:30 51°17.933 3°1.184 15.2794 1.060595 6.682625 -1.801521
2008-03-07 08:03:35 51°17.937 3°1.197 15.2797 1.060595 6.682625 -1.801521
2008-03-07 08:03:40 51°17.942 3°1.21 15.2803 1.060595 6.682625 -1.766697
2008-03-07 08:03:45 51°17.946 3°1.223 15.2803 1.060595 6.682625 -1.766697
2008-03-07 08:03:50 51°17.95 3°1.236 15.2813 1.060595 6.682625 -1.766697
2008-03-07 08:03:55 51°17.955 3°1.249 15.2817 1.060595 6.682746 -1.766697
2008-03-07 08:04:00 51°17.959 3°1.262 15.2827 1.060595 6.682867 -1.766697
2008-03-07 08:04:05 51°17.964 3°1.275 15.2826 1.060595 6.682867 -1.766697
2008-03-07 08:04:10 51°17.968 3°1.289 15.2839 1.060595 6.682746 -1.766697
2008-03-07 08:04:15 51°17.973 3°1.301 15.2838 1.060595 6.682988 -1.766697
2008-03-07 08:04:20 51°17.976 3°1.314 15.2849 1.060595 6.682746 -1.766697
2008-03-07 08:04:25 51°17.981 3°1.327 15.2851 1.060492 6.682288 -1.766697
2008-03-07 08:04:30 51°17.985 3°1.34 15.2859 1.060595 6.682867 -1.766697
2008-03-07 08:04:35 51°17.99 3°1.353 15.2863 1.060595 6.682867 -1.766697
2008-03-07 08:04:40 51°17.994 3°1.367 15.2871 1.060492 6.682288 -1.766697
2008-03-07 08:04:45 51°17.998 3°1.379 15.2875 1.060492 6.682288 -1.766697
2008-03-07 08:04:50 51°18.003 3°1.392 15.2882 1.060492 6.682288 -1.766697
2008-03-07 08:04:55 51°18.007 3°1.405 15.2883 1.060492 6.682288 -1.766697
2008-03-07 08:05:00 51°18.011 3°1.418 15.2892 1.060492 6.682408 -1.766697
2008-03-07 08:05:05 51°18.016 3°1.431 15.2896 1.060492 6.682408 -1.766697
2008-03-07 08:05:10 51°18.02 3°1.445 15.2906 1.060492 6.682408 -1.766697
2008-03-07 08:05:15 51°18.025 3°1.458 15.2909 1.060492 6.682529 -1.766697
2008-03-07 08:05:20 51°18.029 3°1.471 15.2915 1.060492 6.682529 -1.766697
2008-03-07 08:05:25 51°18.033 3°1.484 15.2919 1.060492 6.68265 -1.766697
2008-03-07 08:05:30 51°18.038 3°1.497 15.2924 1.060492 6.68265 -1.766697
2008-03-07 08:05:35 51°18.042 3°1.51 15.2928 1.060492 6.68265 -1.766697
2008-03-07 08:05:40 51°18.047 3°1.523 15.2935 1.060492 6.682771 -1.766697
2008-03-07 08:05:45 51°18.051 3°1.536 15.2942 1.060492 6.68265 -1.766697
2008-03-07 08:05:50 51°18.056 3°1.549 15.2947 1.060492 6.682771 -1.766697
2008-03-07 08:05:55 51°18.06 3°1.562 15.2948 1.060492 6.682771 -1.766697
2008-03-07 08:06:00 51°18.064 3°1.575 15.2955 1.060492 6.68265 -1.766697
2008-03-07 08:06:05 51°18.069 3°1.588 15.2958 1.060492 6.68265 -1.766697
2008-03-07 08:06:10 51°18.073 3°1.601 15.2965 1.060389 6.682071 -1.766697
2008-03-07 08:06:15 51°18.077 3°1.614 15.2973 1.060492 6.682892 -1.801521
2008-03-07 08:06:20 51°18.082 3°1.627 15.2975 1.060492 6.683012 -1.766697
2008-03-07 08:06:25 51°18.086 3°1.64 15.2982 1.060389 6.682433 -1.801521
2008-03-07 08:06:30 51°18.09 3°1.654 15.2985 1.060389 6.682312 -1.766697
2008-03-07 08:06:35 51°18.094 3°1.666 15.2993 1.060389 6.682312 -1.766697
2008-03-07 08:06:40 51°18.098 3°1.678 15.2996 1.060389 6.682554 -1.766697
2008-03-07 08:06:45 51°18.101 3°1.69 15.3003 1.060389 6.682554 -1.766697
2008-03-07 08:06:50 51°18.105 3°1.701 15.3007 1.060389 6.682554 -1.766697
2008-03-07 08:06:55 51°18.108 3°1.712 15.3014 1.060389 6.682554 -1.766697
2008-03-07 08:07:00 51°18.111 3°1.722 15.3017 1.060389 6.682675 -1.766697
2008-03-07 08:07:05 51°18.114 3°1.732 15.3024 1.060389 6.682675 -1.766697
2008-03-07 08:07:10 51°18.117 3°1.741 15.3027 1.060389 6.682675 -1.766697
2008-03-07 08:07:15 51°18.12 3°1.75 15.3034 1.060389 6.682795 -1.766697
2008-03-07 08:07:20 51°18.122 3°1.759 15.304 1.060389 6.682916 -1.766697
2008-03-07 08:07:25 51°18.124 3°1.768 15.3044 1.060389 6.682916 -1.766697
2008-03-07 08:07:30 51°18.126 3°1.776 15.305 1.060389 6.682916 -1.766697
2008-03-07 08:07:35 51°18.129 3°1.784 15.3054 1.060389 6.682916 -1.766697
2008-03-07 08:07:40 51°18.131 3°1.792 15.3061 1.060389 6.682916 -1.766697
2008-03-07 08:07:45 51°18.133 3°1.799 15.3062 1.060389 6.683037 -1.766697
2008-03-07 08:07:50 51°18.135 3°1.806 15.3072 1.060286 6.682337 -1.766697
2008-03-07 08:07:55 51°18.137 3°1.814 15.3073 1.060286 6.682458 -1.801521
2008-03-07 08:08:00 51°18.139 3°1.82 15.3084 1.060286 6.682458 -1.766697
2008-03-07 08:08:05 51°18.141 3°1.827 15.3087 1.060286 6.682458 -1.766697
2008-03-07 08:08:10 51°18.143 3°1.833 15.3092 1.060286 6.682458 -1.766697
2008-03-07 08:08:15 51°18.145 3°1.839 15.3094 1.060286 6.682579 -1.766697
2008-03-07 08:08:20 51°18.147 3°1.845 15.3104 1.060286 6.682579 -1.766697
2008-03-07 08:08:25 51°18.149 3°1.851 15.3109 1.060286 6.682579 -1.766697
2008-03-07 08:08:30 51°18.15 3°1.857 15.3118 1.060286 6.682699 -1.766697
2008-03-07 08:08:35 51°18.152 3°1.862 15.312 1.060286 6.682699 -1.766697
2008-03-07 08:08:40 51°18.154 3°1.868 15.3125 1.060286 6.682699 -1.766697
2008-03-07 08:08:45 51°18.156 3°1.874 15.3131 1.060286 6.682699 -1.766697
2008-03-07 08:08:50 51°18.157 3°1.879 15.3136 1.060286 6.682699 -1.766697
2008-03-07 08:08:55 51°18.159 3°1.885 15.3142 1.060286 6.68282 -1.766697
2008-03-07 08:09:00 51°18.161 3°1.89 15.3145 1.060286 6.68282 -1.766697
2008-03-07 08:09:05 51°18.163 3°1.895 15.3153 1.060286 6.68282 -1.766697
2008-03-07 08:09:10 51°18.164 3°1.901 15.3159 1.060286 6.68282 -1.766697
2008-03-07 08:09:15 51°18.166 3°1.906 15.3163 1.060286 6.68282 -1.766697
2008-03-07 08:09:20 51°18.167 3°1.911 15.3169 1.060286 6.68282 -1.766697
2008-03-07 08:09:25 51°18.169 3°1.916 15.3172 1.060286 6.68282 -1.766697
2008-03-07 08:09:30 51°18.17 3°1.921 15.3179 1.060183 6.682241 -1.766697
2008-03-07 08:09:35 51°18.171 3°1.926 15.3185 1.060183 6.682241 -1.766697
2008-03-07 08:09:40 51°18.173 3°1.93 15.3189 1.060183 6.682241 -1.766697
2008-03-07 08:09:45 51°18.175 3°1.935 15.3194 1.060286 6.682941 -1.766697
2008-03-07 08:09:50 51°18.176 3°1.94 15.3199 1.060286 6.682941 -1.766697
2008-03-07 08:09:55 51°18.178 3°1.944 15.3207 1.060183 6.682241 -1.766697
2008-03-07 08:10:00 51°18.179 3°1.949 15.3216 1.060183 6.682241 -1.766697
2008-03-07 08:10:05 51°18.181 3°1.954 15.3217 1.060183 6.682241 -1.766697
2008-03-07 08:10:10 51°18.183 3°1.96 15.3227 1.060183 6.682241 -1.766697
2008-03-07 08:10:15 51°18.185 3°1.965 15.3231 1.060183 6.682241 -1.766697
2008-03-07 08:10:20 51°18.187 3°1.97 15.3238 1.060183 6.682362 -1.766697
2008-03-07 08:10:25 51°18.189 3°1.976 15.3244 1.060183 6.682241 -1.766697
2008-03-07 08:10:30 51°18.191 3°1.982 15.325 1.060183 6.682362 -1.766697
2008-03-07 08:10:35 51°18.193 3°1.988 15.3261 1.060183 6.682362 -1.766697
2008-03-07 08:10:40 51°18.195 3°1.993 15.3267 1.060183 6.682362 -1.766697
2008-03-07 08:10:45 51°18.197 3°2 15.3276 1.060183 6.682362 -1.766697
2008-03-07 08:10:50 51°18.199 3°2.006 15.3285 1.060183 6.682362 -1.766697
2008-03-07 08:10:55 51°18.201 3°2.012 15.3289 1.06008 6.681661 -1.766697
2008-03-07 08:11:00 51°18.204 3°2.018 15.3299 1.06008 6.681661 -1.766697
2008-03-07 08:11:05 51°18.206 3°2.025 15.3304 1.06008 6.681661 -1.766697
2008-03-07 08:11:10 51°18.208 3°2.031 15.3315 1.060183 6.682362 -1.766697
2008-03-07 08:11:15 51°18.211 3°2.038 15.3322 1.060183 6.682482 -1.766697
2008-03-07 08:11:20 51°18.213 3°2.044 15.3333 1.060183 6.682482 -1.766697
2008-03-07 08:11:25 51°18.215 3°2.051 15.3343 1.060183 6.682603 -1.766697
2008-03-07 08:11:30 51°18.218 3°2.057 15.3353 1.060183 6.682603 -1.766697
2008-03-07 08:11:35 51°18.22 3°2.064 15.3356 1.060183 6.682603 -1.766697
2008-03-07 08:11:40 51°18.222 3°2.071 15.337 1.060183 6.682603 -1.801521
2008-03-07 08:11:45 51°18.225 3°2.077 15.3375 1.060183 6.682603 -1.766697
2008-03-07 08:11:50 51°18.227 3°2.084 15.3383 1.06008 6.681903 -1.766697
2008-03-07 08:11:55 51°18.23 3°2.091 15.3397 1.06008 6.681903 -1.766697
2008-03-07 08:12:00 51°18.232 3°2.098 15.3406 1.06008 6.681903 -1.766697
2008-03-07 08:12:05 51°18.235 3°2.105 15.3416 1.06008 6.681903 -1.766697
2008-03-07 08:12:10 51°18.237 3°2.112 15.3421 1.06008 6.682024 -1.766697
2008-03-07 08:12:15 51°18.24 3°2.119 15.3436 1.06008 6.682024 -1.766697
2008-03-07 08:12:20 51°18.242 3°2.126 15.3442 1.06008 6.682024 -1.766697
2008-03-07 08:12:25 51°18.244 3°2.133 15.3455 1.06008 6.682024 -1.801521
2008-03-07 08:12:30 51°18.247 3°2.139 15.3464 1.06008 6.682024 -1.766697
2008-03-07 08:12:35 51°18.249 3°2.146 15.3475 1.06008 6.682024 -1.766697
2008-03-07 08:12:40 51°18.252 3°2.153 15.3485 1.06008 6.682145 -1.766697
2008-03-07 08:12:45 51°18.254 3°2.16 15.3493 1.06008 6.682145 -1.766697
2008-03-07 08:12:50 51°18.257 3°2.167 15.3505 1.06008 6.682145 -1.766697
2008-03-07 08:12:55 51°18.259 3°2.174 15.3514 1.059977 6.681324 -1.801521
2008-03-07 08:13:00 51°18.261 3°2.182 15.3527 1.059977 6.681444 -1.766697
2008-03-07 08:13:05 51°18.264 3°2.19 15.3531 1.059977 6.681444 -1.766697
2008-03-07 08:13:10 51°18.268 3°2.198 15.3545 1.06008 6.682145 -1.801521
2008-03-07 08:13:15 51°18.271 3°2.207 15.3552 1.06008 6.682265 -1.766697
2008-03-07 08:13:20 51°18.274 3°2.216 15.3567 1.06008 6.682145 -1.766697
2008-03-07 08:13:25 51°18.278 3°2.226 15.3572 1.059977 6.681565 -1.766697
2008-03-07 08:13:30 51°18.282 3°2.237 15.3584 1.059977 6.681565 -1.766697
2008-03-07 08:13:35 51°18.286 3°2.249 15.3592 1.059977 6.681565 -1.766697
2008-03-07 08:13:40 51°18.291 3°2.261 15.3602 1.059977 6.681565 -1.766697
2008-03-07 08:13:45 51°18.296 3°2.274 15.3613 1.059977 6.681565 -1.801521
2008-03-07 08:13:50 51°18.3 3°2.286 15.3619 1.059977 6.681686 -1.766697
2008-03-07 08:13:55 51°18.306 3°2.3 15.3631 1.059977 6.681565 -1.766697
2008-03-07 08:14:00 51°18.311 3°2.313 15.364 1.059977 6.681686 -1.766697
2008-03-07 08:14:05 51°18.316 3°2.327 15.365 1.059977 6.681686 -1.766697
2008-03-07 08:14:10 51°18.321 3°2.342 15.3662 1.059977 6.681686 -1.766697
2008-03-07 08:14:15 51°18.327 3°2.356 15.367 1.059977 6.681807 -1.766697
2008-03-07 08:14:20 51°18.332 3°2.37 15.3682 1.059977 6.681807 -1.766697
2008-03-07 08:14:25 51°18.338 3°2.385 15.3685 1.059977 6.681928 -1.766697
2008-03-07 08:14:30 51°18.343 3°2.4 15.3701 1.059977 6.681807 -1.766697
2008-03-07 08:14:35 51°18.349 3°2.414 15.3709 1.059977 6.681807 -1.766697
2008-03-07 08:14:40 51°18.354 3°2.429 15.3719 1.059977 6.681807 -1.766697
2008-03-07 08:14:45 51°18.36 3°2.444 15.3734 1.059977 6.681928 -1.766697
2008-03-07 08:14:50 51°18.365 3°2.459 15.3739 1.059874 6.681348 -1.766697
2008-03-07 08:14:55 51°18.37 3°2.475 15.3746 1.059874 6.681106 -1.766697
2008-03-07 08:15:00 51°18.375 3°2.491 15.3761 1.059977 6.681807 -1.766697
2008-03-07 08:15:05 51°18.378 3°2.507 15.377 1.059977 6.681807 -1.766697
2008-03-07 08:15:10 51°18.383 3°2.523 15.3779 1.059874 6.681348 -1.766697
2008-03-07 08:15:15 51°18.386 3°2.54 15.3786 1.059874 6.681227 -1.766697
2008-03-07 08:15:20 51°18.39 3°2.556 15.3803 1.059874 6.681348 -1.766697
2008-03-07 08:15:25 51°18.394 3°2.573 15.3807 1.059874 6.681348 -1.766697
2008-03-07 08:15:30 51°18.397 3°2.589 15.382 1.059874 6.681348 -1.766697
2008-03-07 08:15:35 51°18.401 3°2.606 15.3828 1.059874 6.681348 -1.766697
2008-03-07 08:15:40 51°18.404 3°2.623 15.3836 1.059874 6.681348 -1.766697
2008-03-07 08:15:45 51°18.408 3°2.64 15.3846 1.059874 6.681348 -1.766697
2008-03-07 08:15:50 51°18.412 3°2.656 15.3856 1.059874 6.681348 -1.766697
2008-03-07 08:15:55 51°18.415 3°2.673 15.3866 1.059874 6.681469 -1.766697
2008-03-07 08:16:00 51°18.419 3°2.69 15.3874 1.059874 6.681469 -1.801521
2008-03-07 08:16:05 51°18.423 3°2.706 15.3884 1.059874 6.681469 -1.801521
2008-03-07 08:16:10 51°18.426 3°2.723 15.3895 1.059874 6.681469 -1.766697
2008-03-07 08:16:15 51°18.429 3°2.739 15.3902 1.059874 6.68159 -1.766697
2008-03-07 08:16:20 51°18.433 3°2.755 15.3914 1.059874 6.68159 -1.766697
2008-03-07 08:16:25 51°18.436 3°2.772 15.3918 1.059874 6.68159 -1.766697
2008-03-07 08:16:30 51°18.438 3°2.789 15.3932 1.059874 6.681469 -1.801521
2008-03-07 08:16:35 51°18.441 3°2.805 15.3937 1.059874 6.681469 -1.801521
2008-03-07 08:16:40 51°18.442 3°2.823 15.3954 1.059874 6.681348 -1.766697
2008-03-07 08:16:45 51°18.444 3°2.839 15.396 1.059874 6.68159 -1.766697
2008-03-07 08:16:50 51°18.446 3°2.856 15.3972 1.059874 6.681711 -1.766697
2008-03-07 08:16:55 51°18.449 3°2.872 15.3976 1.059874 6.681711 -1.766697
2008-03-07 08:17:00 51°18.451 3°2.889 15.3989 1.059874 6.681832 -1.766697
2008-03-07 08:17:05 51°18.454 3°2.906 15.3992 1.059874 6.681832 -1.766697
2008-03-07 08:17:10 51°18.456 3°2.922 15.4009 1.059874 6.68159 -1.766697
2008-03-07 08:17:15 51°18.459 3°2.939 15.4013 1.059771 6.681131 -1.766697
2008-03-07 08:17:20 51°18.462 3°2.955 15.4023 1.059977 6.681686 -1.766697
2008-03-07 08:17:25 51°18.465 3°2.972 15.4034 1.059771 6.678474 -1.766697
2008-03-07 08:17:30 51°18.468 3°2.988 15.4039 1.059874 6.678691 -1.766697
2008-03-07 08:17:35 51°18.471 3°3.005 15.4046 1.059874 6.678691 -1.766697
2008-03-07 08:17:40 51°18.474 3°3.021 15.4064 1.059874 6.678208 -1.766697
2008-03-07 08:17:45 51°18.478 3°3.037 15.407 1.059874 6.67845 -1.766697
2008-03-07 08:17:50 51°18.481 3°3.053 15.4077 1.059874 6.678329 -1.766697
2008-03-07 08:17:55 51°18.485 3°3.069 15.4089 1.059874 6.678087 -1.766697
2008-03-07 08:18:00 51°18.489 3°3.085 15.4097 1.059874 6.678087 -1.766697
2008-03-07 08:18:05 51°18.493 3°3.101 15.4106 1.059874 6.678087 -1.766697
2008-03-07 08:18:10 51°18.497 3°3.116 15.4112 1.059977 6.678667 -1.766697
2008-03-07 08:18:15 51°18.502 3°3.132 15.4124 1.059977 6.678546 -1.766697
2008-03-07 08:18:20 51°18.506 3°3.148 15.4131 1.059977 6.678667 -1.766697
2008-03-07 08:18:25 51°18.51 3°3.163 15.414 1.059977 6.678667 -1.766697
2008-03-07 08:18:30 51°18.514 3°3.179 15.4151 1.059977 6.678908 -1.766697
2008-03-07 08:18:35 51°18.518 3°3.194 15.4157 1.059977 6.678908 -1.766697
2008-03-07 08:18:40 51°18.522 3°3.21 15.417 1.06008 6.679608 -1.766697
2008-03-07 08:18:45 51°18.526 3°3.226 15.4174 1.06008 6.679729 -1.766697
2008-03-07 08:18:50 51°18.531 3°3.242 15.4186 1.06008 6.679729 -1.766697
2008-03-07 08:18:55 51°18.535 3°3.257 15.4197 1.06008 6.679729 -1.766697
2008-03-07 08:19:00 51°18.539 3°3.273 15.4201 1.06008 6.67985 -1.766697
2008-03-07 08:19:05 51°18.543 3°3.289 15.4212 1.06008 6.67985 -1.766697
2008-03-07 08:19:10 51°18.547 3°3.305 15.422 1.06008 6.679729 -1.766697
2008-03-07 08:19:15 51°18.551 3°3.32 15.4226 1.06008 6.67985 -1.766697
2008-03-07 08:19:20 51°18.555 3°3.336 15.4237 1.06008 6.67997 -1.766697
2008-03-07 08:19:25 51°18.559 3°3.351 15.4247 1.060183 6.68055 -1.766697
2008-03-07 08:19:30 51°18.563 3°3.367 15.4258 1.06008 6.67997 -1.766697
2008-03-07 08:19:35 51°18.567 3°3.382 15.4267 1.06008 6.67997 -1.766697
2008-03-07 08:19:40 51°18.571 3°3.398 15.4275 1.060183 6.68067 -1.766697
2008-03-07 08:19:45 51°18.575 3°3.414 15.4284 1.060183 6.68067 -1.801521
2008-03-07 08:19:50 51°18.579 3°3.429 15.4291 1.06008 6.680091 -1.766697
2008-03-07 08:19:55 51°18.583 3°3.445 15.4305 1.060183 6.680791 -1.766697
2008-03-07 08:20:00 51°18.587 3°3.461 15.4312 1.060183 6.680912 -1.766697
2008-03-07 08:20:05 51°18.591 3°3.476 15.4319 1.060183 6.680912 -1.766697
2008-03-07 08:20:10 51°18.595 3°3.492 15.4331 1.060183 6.681033 -1.766697
2008-03-07 08:20:15 51°18.599 3°3.508 15.4337 1.060183 6.681033 -1.766697
2008-03-07 08:20:20 51°18.603 3°3.524 15.4349 1.060183 6.681033 -1.766697
2008-03-07 08:20:25 51°18.607 3°3.54 15.4358 1.060183 6.681154 -1.766697
2008-03-07 08:20:30 51°18.611 3°3.555 15.437 1.060183 6.681033 -1.766697
2008-03-07 08:20:35 51°18.615 3°3.571 15.4374 1.060183 6.681033 -1.766697
2008-03-07 08:20:40 51°18.618 3°3.586 15.4392 1.060183 6.681154 -1.766697
2008-03-07 08:20:45 51°18.622 3°3.6 15.4394 1.060183 6.681395 -1.766697
2008-03-07 08:20:50 51°18.624 3°3.614 15.4406 1.060183 6.681274 -1.766697
2008-03-07 08:20:55 51°18.626 3°3.627 15.4412 1.06008 6.680574 -1.766697
2008-03-07 08:21:00 51°18.627 3°3.641 15.4424 1.060183 6.681274 -1.766697
2008-03-07 08:21:05 51°18.627 3°3.653 15.4432 1.060183 6.681274 -1.766697
2008-03-07 08:21:10 51°18.627 3°3.666 15.4442 1.060183 6.681395 -1.766697
2008-03-07 08:21:15 51°18.626 3°3.678 15.4453 1.06008 6.680937 -1.766697
2008-03-07 08:21:20 51°18.624 3°3.689 15.4461 1.06008 6.680937 -1.766697
2008-03-07 08:21:25 51°18.623 3°3.7 15.4475 1.06008 6.680937 -1.766697
2008-03-07 08:21:30 51°18.62 3°3.711 15.4483 1.06008 6.681057 -1.766697
2008-03-07 08:21:35 51°18.618 3°3.722 15.4493 1.06008 6.681057 -1.766697
2008-03-07 08:21:40 51°18.616 3°3.732 15.45 1.06008 6.681057 -1.766697
2008-03-07 08:21:45 51°18.614 3°3.742 15.4507 1.06008 6.681057 -1.766697
2008-03-07 08:21:50 51°18.612 3°3.753 15.4523 1.06008 6.680937 -1.766697
2008-03-07 08:21:55 51°18.61 3°3.763 15.4527 1.06008 6.681178 -1.766697
2008-03-07 08:22:00 51°18.608 3°3.772 15.4542 1.06008 6.681299 -1.766697
2008-03-07 08:22:05 51°18.607 3°3.781 15.455 1.06008 6.681299 -1.766697
2008-03-07 08:22:10 51°18.605 3°3.789 15.456 1.06008 6.68142 -1.766697
2008-03-07 08:22:15 51°18.604 3°3.796 15.4567 1.06008 6.681541 -1.766697
2008-03-07 08:22:20 51°18.603 3°3.803 15.4582 1.06008 6.681541 -1.766697
2008-03-07 08:22:25 51°18.601 3°3.81 15.459 1.06008 6.681541 -1.766697
2008-03-07 08:22:30 51°18.599 3°3.815 15.4597 1.06008 6.681541 -1.766697
2008-03-07 08:22:35 51°18.598 3°3.818 15.4609 1.06008 6.681541 -1.766697
2008-03-07 08:22:40 51°18.596 3°3.821 15.4623 1.06008 6.681541 -1.766697
2008-03-07 08:22:45 51°18.595 3°3.823 15.463 1.06008 6.681661 -1.766697
2008-03-07 08:22:50 51°18.594 3°3.824 15.4637 1.06008 6.681661 -1.801521
2008-03-07 08:22:55 51°18.593 3°3.824 15.4649 1.059977 6.681082 -1.766697
2008-03-07 08:23:00 51°18.592 3°3.823 15.466 1.059977 6.680961 -1.766697
2008-03-07 08:23:05 51°18.592 3°3.823 15.4666 1.059977 6.680961 -1.766697
2008-03-07 08:23:10 51°18.591 3°3.822 15.4673 1.059977 6.681082 -1.766697
2008-03-07 08:23:15 51°18.591 3°3.821 15.4688 1.059977 6.681082 -1.766697
2008-03-07 08:23:20 51°18.591 3°3.82 15.47 1.059977 6.681082 -1.766697
2008-03-07 08:23:25 51°18.591 3°3.82 15.4707 1.059977 6.681082 -1.766697
2008-03-07 08:23:30 51°18.591 3°3.819 15.4715 1.059977 6.681082 -1.766697
2008-03-07 08:23:35 51°18.59 3°3.818 15.4725 1.059977 6.681082 -1.766697
2008-03-07 08:23:40 51°18.59 3°3.817 15.4736 1.059977 6.681203 -1.766697
2008-03-07 08:23:45 51°18.59 3°3.816 15.4747 1.059977 6.681324 -1.766697
2008-03-07 08:23:50 51°18.59 3°3.816 15.476 1.059977 6.681444 -1.766697
2008-03-07 08:23:55 51°18.59 3°3.815 15.4767 1.059977 6.681444 -1.766697
2008-03-07 08:24:00 51°18.59 3°3.814 15.4776 1.059977 6.681444 -1.766697
2008-03-07 08:24:05 51°18.59 3°3.813 15.4787 1.059977 6.681444 -1.766697
2008-03-07 08:24:10 51°18.59 3°3.812 15.4798 1.059977 6.681444 -1.766697
2008-03-07 08:24:15 51°18.59 3°3.811 15.4808 1.059977 6.681444 -1.766697
2008-03-07 08:24:20 51°18.589 3°3.811 15.4816 1.059977 6.681444 -1.766697
2008-03-07 08:24:25 51°18.589 3°3.81 15.4829 1.059874 6.680865 -1.766697
2008-03-07 08:24:30 51°18.589 3°3.809 15.4839 1.059874 6.680865 -1.766697
2008-03-07 08:24:36 51°18.589 3°3.808 15.4849 1.059874 6.680865 -1.766697
2008-03-07 08:24:40 51°18.589 3°3.807 15.486 1.059874 6.680865 -1.766697
2008-03-07 08:24:45 51°18.589 3°3.806 15.4872 1.059874 6.680865 -1.766697
2008-03-07 08:24:50 51°18.589 3°3.805 15.4881 1.059977 6.681565 -1.766697
2008-03-07 08:24:55 51°18.589 3°3.804 15.4891 1.059874 6.680744 -1.766697
2008-03-07 08:25:00 51°18.589 3°3.803 15.4898 1.059874 6.680865 -1.766697
2008-03-07 08:25:05 51°18.589 3°3.802 15.4912 1.059874 6.680865 -1.766697
2008-03-07 08:25:10 51°18.589 3°3.801 15.4922 1.059874 6.680865 -1.766697
2008-03-07 08:25:16 51°18.589 3°3.8 15.4934 1.059874 6.680986 -1.766697
2008-03-07 08:25:20 51°18.589 3°3.799 15.4943 1.059874 6.680986 -1.766697
2008-03-07 08:25:25 51°18.589 3°3.798 15.4956 1.059874 6.681106 -1.766697
2008-03-07 08:25:30 51°18.589 3°3.797 15.4962 1.059874 6.681106 -1.766697
2008-03-07 08:25:35 51°18.589 3°3.796 15.4972 1.059874 6.681106 -1.766697
2008-03-07 08:25:40 51°18.588 3°3.795 15.4986 1.059874 6.681227 -1.766697
2008-03-07 08:25:45 51°18.589 3°3.794 15.4997 1.059874 6.681227 -1.801521
2008-03-07 08:25:50 51°18.589 3°3.793 15.5005 1.059874 6.681348 -1.766697
2008-03-07 08:25:55 51°18.589 3°3.792 15.5019 1.059874 6.681348 -1.766697
2008-03-07 08:26:00 51°18.589 3°3.791 15.5027 1.059874 6.681348 -1.766697
2008-03-07 08:26:05 51°18.589 3°3.79 15.5037 1.059874 6.681348 -1.766697
2008-03-07 08:26:10 51°18.589 3°3.789 15.5051 1.059874 6.681469 -1.766697
2008-03-07 08:26:15 51°18.589 3°3.788 15.5062 1.059874 6.681469 -1.766697
2008-03-07 08:26:20 51°18.589 3°3.787 15.5072 1.059874 6.681469 -1.766697
2008-03-07 08:26:25 51°18.589 3°3.786 15.5081 1.059771 6.680769 -1.766697
2008-03-07 08:26:30 51°18.589 3°3.785 15.5092 1.059771 6.680769 -1.766697
2008-03-07 08:26:35 51°18.59 3°3.784 15.5103 1.059771 6.680769 -1.766697
2008-03-07 08:26:40 51°18.59 3°3.783 15.5111 1.059771 6.68101 -1.766697
2008-03-07 08:26:45 51°18.59 3°3.782 15.5126 1.059771 6.68101 -1.766697
2008-03-07 08:26:50 51°18.59 3°3.781 15.5135 1.059771 6.68101 -1.766697
2008-03-07 08:26:56 51°18.59 3°3.78 15.5146 1.059771 6.681131 -1.766697
2008-03-07 08:27:00 51°18.59 3°3.779 15.5158 1.059771 6.681131 -1.766697
2008-03-07 08:27:05 51°18.59 3°3.778 15.5168 1.059771 6.681131 -1.766697
2008-03-07 08:27:10 51°18.59 3°3.777 15.5179 1.059771 6.681131 -1.766697
2008-03-07 08:27:15 51°18.59 3°3.776 15.519 1.059771 6.681131 -1.766697
2008-03-07 08:27:20 51°18.59 3°3.775 15.5204 1.059771 6.681252 -1.766697
2008-03-07 08:27:25 51°18.59 3°3.774 15.5208 1.059771 6.681131 -1.766697
2008-03-07 08:27:30 51°18.59 3°3.773 15.5221 1.059771 6.681252 -1.766697
2008-03-07 08:27:35 51°18.59 3°3.772 15.523 1.059771 6.681252 -1.766697
2008-03-07 08:27:40 51°18.59 3°3.771 15.5245 1.059771 6.681252 -1.766697
2008-03-07 08:27:45 51°18.591 3°3.77 15.5251 1.059668 6.680672 -1.766697
2008-03-07 08:27:50 51°18.591 3°3.769 15.5266 1.059668 6.680672 -1.766697
2008-03-07 08:27:55 51°18.591 3°3.768 15.5273 1.059668 6.680672 -1.766697
2008-03-07 08:28:00 51°18.591 3°3.767 15.5289 1.059668 6.680793 -1.766697
2008-03-07 08:28:05 51°18.591 3°3.766 15.5298 1.059668 6.680793 -1.766697
2008-03-07 08:28:10 51°18.591 3°3.765 15.5308 1.059668 6.680793 -1.766697
2008-03-07 08:28:15 51°18.591 3°3.764 15.5317 1.059668 6.680793 -1.766697
2008-03-07 08:28:20 51°18.591 3°3.762 15.5325 1.059668 6.680793 -1.766697
2008-03-07 08:28:25 51°18.591 3°3.761 15.5342 1.059668 6.680914 -1.766697
2008-03-07 08:28:30 51°18.591 3°3.76 15.5347 1.059668 6.680914 -1.766697
2008-03-07 08:28:35 51°18.591 3°3.759 15.536 1.059668 6.680914 -1.766697
2008-03-07 08:28:40 51°18.592 3°3.758 15.5372 1.059668 6.681035 -1.766697
2008-03-07 08:28:45 51°18.592 3°3.757 15.5382 1.059668 6.681035 -1.766697
2008-03-07 08:28:50 51°18.591 3°3.756 15.539 1.059668 6.681156 -1.766697
2008-03-07 08:28:55 51°18.591 3°3.755 15.5402 1.059565 6.680334 -1.766697
2008-03-07 08:29:00 51°18.591 3°3.754 15.5413 1.059565 6.680455 -1.766697
2008-03-07 08:29:05 51°18.591 3°3.753 15.5422 1.059565 6.680455 -1.766697
2008-03-07 08:29:10 51°18.591 3°3.752 15.5434 1.059565 6.680455 -1.766697
2008-03-07 08:29:16 51°18.591 3°3.751 15.5443 1.059565 6.680455 -1.766697
2008-03-07 08:29:20 51°18.591 3°3.75 15.5453 1.059565 6.680576 -1.801521
2008-03-07 08:29:25 51°18.591 3°3.749 15.5466 1.059565 6.680576 -1.766697
2008-03-07 08:29:30 51°18.591 3°3.748 15.5478 1.059565 6.680576 -1.766697
2008-03-07 08:29:35 51°18.591 3°3.747 15.5487 1.059565 6.680576 -1.766697
2008-03-07 08:29:40 51°18.591 3°3.746 15.5498 1.059565 6.680576 -1.766697
2008-03-07 08:29:45 51°18.591 3°3.745 15.5507 1.059565 6.680576 -1.766697
2008-03-07 08:29:50 51°18.591 3°3.744 15.5521 1.059565 6.680697 -1.766697
2008-03-07 08:29:55 51°18.591 3°3.744 15.5531 1.059565 6.680697 -1.766697
2008-03-07 08:30:00 51°18.591 3°3.742 15.5543 1.059565 6.680697 -1.766697
2008-03-07 08:30:05 51°18.591 3°3.742 15.555 1.059565 6.680697 -1.766697
2008-03-07 08:30:10 51°18.591 3°3.741 15.5562 1.059565 6.680697 -1.766697
2008-03-07 08:30:15 51°18.591 3°3.74 15.5573 1.059565 6.680818 -1.766697
2008-03-07 08:30:20 51°18.591 3°3.739 15.5589 1.059462 6.680117 -1.766697
2008-03-07 08:30:25 51°18.591 3°3.738 15.5596 1.059462 6.680117 -1.766697
2008-03-07 08:30:30 51°18.591 3°3.738 15.5605 1.059462 6.680117 -1.766697
2008-03-07 08:30:35 51°18.591 3°3.737 15.5616 1.059462 6.680117 -1.766697
2008-03-07 08:30:40 51°18.591 3°3.736 15.5625 1.059462 6.680117 -1.766697
2008-03-07 08:30:45 51°18.591 3°3.735 15.5637 1.059462 6.680117 -1.766697
2008-03-07 08:30:50 51°18.591 3°3.734 15.5645 1.059462 6.680117 -1.766697
2008-03-07 08:30:55 51°18.591 3°3.734 15.5657 1.059462 6.680238 -1.766697
2008-03-07 08:31:00 51°18.591 3°3.733 15.5667 1.059462 6.680238 -1.766697
2008-03-07 08:31:05 51°18.59 3°3.732 15.5676 1.059462 6.680238 -1.766697
2008-03-07 08:31:10 51°18.59 3°3.731 15.569 1.059462 6.680238 -1.766697
2008-03-07 08:31:15 51°18.59 3°3.73 15.5702 1.059462 6.680238 -1.766697
2008-03-07 08:31:20 51°18.59 3°3.73 15.571 1.059462 6.680359 -1.766697
2008-03-07 08:31:25 51°18.59 3°3.729 15.5725 1.059462 6.680238 -1.766697
2008-03-07 08:31:30 51°18.59 3°3.729 15.5733 1.059462 6.680238 -1.801521
2008-03-07 08:31:36 51°18.59 3°3.728 15.5744 1.059462 6.680238 -1.801521
2008-03-07 08:31:40 51°18.59 3°3.728 15.5752 1.059462 6.680359 -1.766697
2008-03-07 08:31:45 51°18.59 3°3.727 15.5768 1.059462 6.680238 -1.766697
2008-03-07 08:31:50 51°18.59 3°3.726 15.5775 1.059462 6.680238 -1.766697
2008-03-07 08:31:55 51°18.589 3°3.726 15.5786 1.059462 6.680359 -1.766697
2008-03-07 08:32:00 51°18.589 3°3.725 15.58 1.059462 6.680359 -1.766697
2008-03-07 08:32:05 51°18.589 3°3.724 15.5808 1.059462 6.680359 -1.766697
2008-03-07 08:32:10 51°18.589 3°3.724 15.5818 1.059358 6.679659 -1.766697
2008-03-07 08:32:15 51°18.589 3°3.723 15.5826 1.059358 6.679659 -1.766697
2008-03-07 08:32:20 51°18.589 3°3.723 15.584 1.059358 6.679659 -1.766697
2008-03-07 08:32:25 51°18.589 3°3.722 15.5852 1.059358 6.679659 -1.766697
2008-03-07 08:32:30 51°18.589 3°3.722 15.5862 1.059358 6.679659 -1.766697
2008-03-07 08:32:35 51°18.589 3°3.721 15.5869 1.059358 6.679659 -1.766697
2008-03-07 08:32:40 51°18.589 3°3.72 15.5883 1.059358 6.679538 -1.766697
2008-03-07 08:32:45 51°18.589 3°3.72 15.5891 1.059358 6.679659 -1.766697
2008-03-07 08:32:50 51°18.588 3°3.719 15.5904 1.059358 6.679659 -1.766697
2008-03-07 08:32:55 51°18.588 3°3.719 15.5914 1.059358 6.679659 -1.766697
2008-03-07 08:33:00 51°18.588 3°3.718 15.5924 1.059358 6.679538 -1.766697
2008-03-07 08:33:05 51°18.588 3°3.718 15.5937 1.059358 6.679538 -1.766697
2008-03-07 08:33:10 51°18.588 3°3.717 15.5946 1.059358 6.679659 -1.766697
2008-03-07 08:33:15 51°18.588 3°3.717 15.5957 1.059358 6.679659 -1.766697
2008-03-07 08:33:20 51°18.588 3°3.716 15.597 1.059358 6.679538 -1.766697
2008-03-07 08:33:25 51°18.588 3°3.716 15.598 1.059358 6.679659 -1.766697
2008-03-07 08:33:30 51°18.587 3°3.715 15.5993 1.059255 6.678958 -1.766697
2008-03-07 08:33:35 51°18.587 3°3.714 15.5999 1.059255 6.678958 -1.766697
2008-03-07 08:33:40 51°18.587 3°3.714 15.6013 1.059358 6.679659 -1.766697
2008-03-07 08:33:45 51°18.587 3°3.713 15.6021 1.059255 6.678958 -1.766697
2008-03-07 08:33:50 51°18.587 3°3.713 15.6035 1.059358 6.679659 -1.766697
2008-03-07 08:33:56 51°18.587 3°3.712 15.6044 1.059255 6.678958 -1.766697
2008-03-07 08:34:00 51°18.587 3°3.711 15.6057 1.059358 6.679538 -1.766697
2008-03-07 08:34:05 51°18.587 3°3.711 15.6068 1.059358 6.679538 -1.766697
2008-03-07 08:34:10 51°18.587 3°3.71 15.608 1.059255 6.678837 -1.766697
2008-03-07 08:34:15 51°18.587 3°3.71 15.6092 1.059255 6.678958 -1.766697
2008-03-07 08:34:20 51°18.587 3°3.709 15.6102 1.059255 6.678837 -1.766697
2008-03-07 08:34:25 51°18.586 3°3.709 15.6116 1.059255 6.678837 -1.766697
2008-03-07 08:34:30 51°18.586 3°3.708 15.6125 1.059255 6.678958 -1.766697
2008-03-07 08:34:35 51°18.586 3°3.707 15.6135 1.059255 6.678958 -1.766697
2008-03-07 08:34:40 51°18.586 3°3.707 15.6143 1.059255 6.678958 -1.766697
2008-03-07 08:34:45 51°18.586 3°3.706 15.6158 1.059255 6.678958 -1.801521
2008-03-07 08:34:50 51°18.586 3°3.706 15.6168 1.059255 6.678958 -1.766697
2008-03-07 08:34:55 51°18.585 3°3.706 15.6178 1.059255 6.678958 -1.766697
2008-03-07 08:35:00 51°18.585 3°3.705 15.6194 1.059255 6.678958 -1.766697
2008-03-07 08:35:05 51°18.585 3°3.704 15.6203 1.059255 6.678958 -1.766697
2008-03-07 08:35:10 51°18.585 3°3.704 15.6211 1.059255 6.678958 -1.766697
2008-03-07 08:35:15 51°18.584 3°3.703 15.6223 1.059255 6.678837 -1.766697
2008-03-07 08:35:20 51°18.584 3°3.703 15.6238 1.059255 6.678958 -1.766697
2008-03-07 08:35:25 51°18.584 3°3.702 15.6248 1.059255 6.678958 -1.766697
2008-03-07 08:35:30 51°18.584 3°3.702 15.6262 1.059255 6.678958 -1.766697
2008-03-07 08:35:35 51°18.583 3°3.701 15.6269 1.059255 6.678958 -1.766697
2008-03-07 08:35:40 51°18.583 3°3.701 15.6279 1.059255 6.678958 -1.766697
2008-03-07 08:35:45 51°18.583 3°3.7 15.629 1.059255 6.678958 -1.766697
2008-03-07 08:35:50 51°18.583 3°3.7 15.6302 1.059255 6.678958 -1.766697
2008-03-07 08:35:55 51°18.583 3°3.699 15.6314 1.059255 6.678958 -1.766697
2008-03-07 08:36:00 51°18.582 3°3.699 15.6323 1.059255 6.678958 -1.766697
2008-03-07 08:36:05 51°18.582 3°3.698 15.6337 1.059255 6.678958 -1.766697
2008-03-07 08:36:10 51°18.582 3°3.698 15.6347 1.059255 6.678958 -1.766697
2008-03-07 08:36:16 51°18.582 3°3.697 15.636 1.059255 6.678958 -1.766697
2008-03-07 08:36:20 51°18.582 3°3.697 15.6371 1.059255 6.678958 -1.766697
2008-03-07 08:36:25 51°18.582 3°3.696 15.6387 1.059255 6.678958 -1.766697
2008-03-07 08:36:30 51°18.582 3°3.696 15.6393 1.059255 6.678958 -1.766697
2008-03-07 08:36:36 51°18.582 3°3.695 15.6405 1.059255 6.678958 -1.766697
2008-03-07 08:36:40 51°18.582 3°3.695 15.6418 1.059152 6.678378 -1.766697
2008-03-07 08:36:45 51°18.582 3°3.694 15.6425 1.059152 6.678378 -1.766697
2008-03-07 08:36:50 51°18.582 3°3.694 15.6439 1.059152 6.678258 -1.766697
2008-03-07 08:36:55 51°18.581 3°3.693 15.6452 1.059152 6.678378 -1.766697
2008-03-07 08:37:00 51°18.581 3°3.692 15.6468 1.059152 6.678378 -1.766697
2008-03-07 08:37:05 51°18.581 3°3.692 15.6472 1.059152 6.678378 -1.766697
2008-03-07 08:37:10 51°18.581 3°3.691 15.6486 1.059255 6.679079 -1.766697
2008-03-07 08:37:15 51°18.581 3°3.691 15.6496 1.059152 6.678378 -1.766697
2008-03-07 08:37:20 51°18.581 3°3.69 15.6509 1.059152 6.678378 -1.766697
2008-03-07 08:37:25 51°18.58 3°3.689 15.6522 1.059152 6.678378 -1.766697
2008-03-07 08:37:30 51°18.579 3°3.689 15.6535 1.059152 6.678499 -1.766697
2008-03-07 08:37:35 51°18.579 3°3.688 15.6547 1.059152 6.678499 -1.766697
2008-03-07 08:37:40 51°18.579 3°3.688 15.6554 1.059152 6.678499 -1.766697
2008-03-07 08:37:45 51°18.579 3°3.687 15.6572 1.059152 6.678499 -1.766697
2008-03-07 08:37:50 51°18.579 3°3.686 15.6582 1.059152 6.678499 -1.766697
2008-03-07 08:37:55 51°18.579 3°3.686 15.6595 1.059152 6.678499 -1.766697
2008-03-07 08:38:00 51°18.579 3°3.685 15.6605 1.059152 6.67862 -1.766697
2008-03-07 08:38:05 51°18.579 3°3.685 15.6618 1.059152 6.67862 -1.766697
2008-03-07 08:38:10 51°18.579 3°3.684 15.6627 1.059152 6.67862 -1.766697
2008-03-07 08:38:15 51°18.578 3°3.684 15.6641 1.059152 6.67862 -1.766697
2008-03-07 08:38:20 51°18.578 3°3.683 15.6651 1.059152 6.67862 -1.766697
2008-03-07 08:38:25 51°18.578 3°3.683 15.6664 1.059152 6.67862 -1.766697
2008-03-07 08:38:30 51°18.578 3°3.682 15.6676 1.059152 6.67862 -1.766697
2008-03-07 08:38:36 51°18.578 3°3.682 15.6683 1.059152 6.67862 -1.766697
2008-03-07 08:38:40 51°18.578 3°3.681 15.6693 1.059152 6.678741 -1.766697
2008-03-07 08:38:45 51°18.578 3°3.681 15.6705 1.059049 6.67804 -1.766697
2008-03-07 08:38:50 51°18.578 3°3.681 15.672 1.059049 6.67804 -1.766697
2008-03-07 08:38:55 51°18.577 3°3.68 15.6729 1.059049 6.678161 -1.766697
2008-03-07 08:39:00 51°18.577 3°3.68 15.6743 1.059152 6.678862 -1.766697
2008-03-07 08:39:05 51°18.577 3°3.679 15.6756 1.059152 6.678862 -1.766697
2008-03-07 08:39:10 51°18.577 3°3.679 15.6767 1.059049 6.678161 -1.766697
2008-03-07 08:39:15 51°18.577 3°3.678 15.6777 1.059049 6.678161 -1.766697
2008-03-07 08:39:20 51°18.577 3°3.678 15.6788 1.059049 6.678282 -1.766697
2008-03-07 08:39:25 51°18.577 3°3.677 15.6802 1.059049 6.678282 -1.766697
2008-03-07 08:39:30 51°18.577 3°3.677 15.6809 1.059049 6.678282 -1.766697
2008-03-07 08:39:35 51°18.577 3°3.676 15.6826 1.059049 6.678282 -1.766697
2008-03-07 08:39:40 51°18.577 3°3.676 15.6831 1.059049 6.678282 -1.766697
2008-03-07 08:39:45 51°18.577 3°3.676 15.6846 1.059049 6.678282 -1.766697
2008-03-07 08:39:50 51°18.577 3°3.675 15.6855 1.059049 6.678403 -1.766697
2008-03-07 08:39:55 51°18.577 3°3.675 15.6867 1.059049 6.678403 -1.766697
2008-03-07 08:40:00 51°18.577 3°3.674 15.688 1.059049 6.678403 -1.766697
2008-03-07 08:40:05 51°18.577 3°3.674 15.6893 1.059049 6.678403 -1.766697
2008-03-07 08:40:10 51°18.577 3°3.673 15.6902 1.059049 6.678524 -1.766697
2008-03-07 08:40:15 51°18.577 3°3.673 15.6913 1.059049 6.678524 -1.766697
2008-03-07 08:40:20 51°18.577 3°3.672 15.6926 1.059049 6.678524 -1.766697
2008-03-07 08:40:25 51°18.577 3°3.672 15.6937 1.059049 6.678644 -1.766697
2008-03-07 08:40:30 51°18.577 3°3.672 15.6948 1.058946 6.677944 -1.766697
2008-03-07 08:40:36 51°18.576 3°3.672 15.6959 1.058946 6.677944 -1.766697
2008-03-07 08:40:40 51°18.576 3°3.671 15.6971 1.059049 6.678644 -1.766697
2008-03-07 08:40:45 51°18.576 3°3.671 15.6981 1.058946 6.678065 -1.766697
2008-03-07 08:40:50 51°18.576 3°3.671 15.6993 1.058946 6.678065 -1.766697
2008-03-07 08:40:55 51°18.576 3°3.67 15.7003 1.058946 6.678065 -1.766697
2008-03-07 08:41:00 51°18.576 3°3.67 15.7015 1.058946 6.678186 -1.766697
2008-03-07 08:41:05 51°18.576 3°3.669 15.703 1.058946 6.678186 -1.766697
2008-03-07 08:41:10 51°18.576 3°3.669 15.7036 1.058946 6.678186 -1.766697
2008-03-07 08:41:15 51°18.576 3°3.669 15.705 1.058946 6.678306 -1.766697
2008-03-07 08:41:20 51°18.576 3°3.669 15.7063 1.058946 6.678306 -1.766697
2008-03-07 08:41:25 51°18.576 3°3.668 15.7076 1.058946 6.678306 -1.766697
2008-03-07 08:41:30 51°18.576 3°3.668 15.709 1.058946 6.678427 -1.766697
2008-03-07 08:41:35 51°18.576 3°3.668 15.7098 1.058946 6.678427 -1.766697
2008-03-07 08:41:40 51°18.576 3°3.667 15.7113 1.058946 6.678427 -1.766697
2008-03-07 08:41:45 51°18.576 3°3.667 15.7121 1.058946 6.678548 -1.766697
2008-03-07 08:41:50 51°18.576 3°3.667 15.7135 1.058946 6.678548 -1.766697
2008-03-07 08:41:55 51°18.576 3°3.666 15.7147 1.058946 6.678548 -1.766697
2008-03-07 08:42:00 51°18.576 3°3.666 15.7158 1.058843 6.677968 -1.766697
2008-03-07 08:42:05 51°18.576 3°3.666 15.7169 1.058843 6.677968 -1.766697
2008-03-07 08:42:10 51°18.576 3°3.666 15.7181 1.058946 6.67879 -1.766697
2008-03-07 08:42:15 51°18.576 3°3.665 15.7195 1.058843 6.678089 -1.766697
2008-03-07 08:42:20 51°18.576 3°3.665 15.7202 1.058843 6.678089 -1.766697
2008-03-07 08:42:25 51°18.576 3°3.665 15.722 1.058843 6.678089 -1.766697